GFSFLT1_prec_cthk_000.txt.gz
RH
24 24 25 23 20 14 12 12 12 13 14 14 15 15 15 16 23 26 25 30 20 17 17 16 16 17 22 21 21 22 22 18 16
24 23 24 21 16 14 13 12 13 13 14 15 15 15 16 23 24 26 26 24 17 18 16 17 17 17 15 16 13 16 13 11 13
25 25 26 23 19 15 15 14 13 14 15 15 15 16 17 21 22 20 23 17 17 17 16 17 17 18 16 15 14 13 12 11 10
24 25 26 23 21 16 15 15 15 15 15 15 16 17 18 19 21 18 21 17 17 17 17 17 17 17 17 17 16 16 16 15 13
20 23 24 22 20 17 14 15 16 16 15 16 17 18 19 21 19 18 20 18 18 19 19 18 18 18 18 18 19 18 18 18 18
21 23 20 20 18 15 14 16 16 16 16 16 17 18 20 21 21 21 19 19 19 20 20 19 19 18 19 19 20 21 21 21 20
22 19 17 17 16 14 14 17 17 16 17 18 18 19 19 20 20 22 19 20 20 20 21 20 20 19 20 20 21 22 22 23 22
18 23 17 18 15 15 15 17 17 17 17 17 19 20 20 20 20 20 20 20 20 20 19 20 21 21 21 22 22 23 23 24 24
23 24 22 18 18 17 14 20 18 17 17 18 19 20 21 21 20 20 20 21 21 20 20 20 20 21 22 23 22 23 24 25 26
25 25 24 21 20 19 19 20 22 19 18 18 19 20 21 21 21 21 21 21 21 21 21 21 21 21 21 22 23 23 24 24 25
23 26 26 24 22 20 20 20 23 23 19 20 20 20 21 22 22 22 22 22 21 22 21 21 21 21 21 21 21 22 24 25 26
27 27 29 27 26 22 22 22 19 23 23 20 22 21 21 22 23 23 23 23 22 22 23 22 22 22 22 22 22 23 25 25 26
30 30 30 31 31 29 27 25 23 21 24 24 25 24 23 23 24 24 23 23 23 24 24 23 23 22 22 22 23 23 25 28 30
30 30 31 35 36 34 31 29 28 26 24 26 27 27 26 24 24 24 24 24 24 24 24 24 24 24 24 25 25 26 28 29 32
31 32 32 34 36 37 37 34 32 30 30 29 27 26 28 28 27 27 26 25 25 25 24 24 24 25 27 27 28 28 30 40 42
30 32 34 34 35 35 38 39 38 35 34 35 32 29 27 27 27 25 26 26 25 25 26 27 28 29 29 30 33 40 42 43 46
30 32 35 37 39 40 42 44 44 42 42 39 39 37 33 31 29 27 27 28 28 30 33 35 36 39 40 41 41 43 44 48 50
28 32 34 36 37 36 39 42 44 46 47 45 45 43 37 35 33 32 32 33 35 38 41 43 45 45 44 45 47 49 54 53 55
27 30 32 34 34 34 36 39 44 48 50 52 46 46 41 41 39 39 39 40 40 41 43 43 46 46 46 49 51 55 55 55 56
26 29 30 30 31 32 35 40 43 47 51 51 51 49 47 45 48 44 45 46 44 44 44 45 47 47 48 50 54 57 58 57 53

GFSFLT1_prec_cthk_003.txt.gz
RH
21 23 24 24 20 14 13 12 13 15 14 14 14 14 14 18 23 25 29 23 15 14 14 14 14 13 12 11 10 10 9 10 10
21 21 24 21 19 16 13 11 13 13 13 14 14 14 15 21 23 25 27 17 16 15 14 15 16 14 13 11 10 10 9 9 9
21 23 24 23 21 17 14 13 13 14 15 14 14 14 16 22 23 24 24 16 16 15 15 14 16 15 14 12 12 12 12 11 10
21 22 22 22 19 16 15 14 14 15 15 14 13 14 16 21 23 22 22 16 15 15 15 16 16 16 16 15 14 14 14 14 14
19 20 20 20 18 16 14 13 14 15 15 14 14 15 17 21 21 24 23 17 16 16 16 17 17 17 17 17 17 16 16 16 16
22 21 20 18 16 15 12 12 14 15 15 14 14 15 17 23 25 25 19 18 17 17 17 17 17 18 18 18 18 18 18 18 18
23 21 17 17 16 15 12 12 15 16 17 16 15 16 20 21 24 25 19 18 17 18 18 18 18 18 18 19 19 19 20 21 21
20 23 21 17 17 16 13 13 15 17 19 19 20 19 22 21 22 25 20 18 18 18 18 19 18 19 19 19 19 20 21 22 23
23 25 25 24 25 21 21 20 20 17 17 18 18 19 21 21 20 23 21 20 19 19 18 19 19 19 19 19 20 20 20 21 22
24 25 25 26 27 26 24 21 22 23 20 19 18 18 19 20 21 20 21 21 20 20 20 19 19 20 20 20 20 20 21 21 22
23 24 25 27 27 27 27 26 24 24 24 22 21 20 19 19 20 21 22 22 22 21 21 21 21 21 21 22 22 22 23 23 22
23 24 26 28 30 30 30 29 28 27 27 26 25 24 24 23 22 21 21 22 23 22 22 23 23 23 22 22 22 25 29 28 26
26 26 25 28 32 33 33 32 31 30 29 27 28 28 28 27 27 25 23 23 23 23 23 23 24 24 25 24 25 27 30 27 26
25 26 26 29 31 34 34 34 32 32 31 31 29 29 31 31 30 28 26 26 24 25 25 25 25 26 26 26 26 28 30 28 29
26 29 31 31 31 32 35 34 34 34 33 34 35 33 32 31 32 32 31 29 27 26 26 28 27 26 26 27 29 30 31 31 32
25 25 27 32 33 33 37 39 37 36 37 38 38 40 37 35 33 31 30 28 28 28 28 28 27 27 29 31 32 32 33 41 43
23 21 21 29 34 36 37 40 40 38 40 43 45 44 39 37 38 37 36 32 33 32 31 31 31 32 36 37 41 42 43 45 47
19 18 21 26 33 35 37 39 41 40 41 44 47 47 44 41 41 41 40 37 37 36 40 39 48 42 43 45 46 46 47 50 54
17 18 21 26 31 34 37 40 41 45 45 48 47 47 49 53 51 49 46 45 45 48 49 53 54 46 48 48 47 49 49 53 58
21 25 29 30 31 35 37 41 43 45 49 47 52 53 54 57 62 59 55 54 53 54 56 59 56 52 54 49 49 51 53 58 62

GFSFLT1_prec_cthk_006.txt.gz
RH
21 20 19 17 16 16 14 15 14 21 17 17 14 14 17 20 23 30 26 20 14 13 11 11 12 11 10 10 10 9 8 8 8
21 19 20 18 17 16 13 12 13 14 14 15 15 14 18 20 24 30 23 15 14 13 12 12 12 12 11 11 11 10 10 9 9
21 21 21 21 18 15 12 11 11 13 14 15 15 14 18 20 23 23 22 15 14 14 13 13 13 12 12 12 12 12 12 12 12
22 21 22 20 18 16 13 12 11 12 14 14 14 13 16 18 20 20 18 16 15 14 14 13 13 13 14 13 13 14 14 13 14
20 20 20 20 20 17 15 13 12 11 13 13 13 13 14 16 17 21 20 18 16 15 15 15 14 14 14 14 14 15 15 15 16
20 19 16 18 19 17 16 13 13 13 13 13 13 13 14 16 17 21 19 18 17 16 16 15 15 15 15 15 15 16 16 17 18
20 20 18 18 17 17 17 16 14 15 15 15 14 14 15 16 19 20 20 19 18 18 17 17 16 16 16 16 16 17 18 18 19
18 18 17 19 17 18 18 17 17 17 18 17 17 16 16 18 19 20 21 20 20 20 19 18 18 17 17 17 18 18 19 19 20
15 16 18 19 18 21 20 20 18 19 20 20 20 21 21 22 22 21 22 22 21 21 21 20 20 19 19 19 19 19 19 19 19
18 18 22 22 21 21 24 23 22 23 21 21 21 21 23 24 24 24 23 24 23 22 22 22 21 21 21 21 21 20 20 20 20
20 19 21 22 22 22 23 23 22 22 22 22 22 22 22 23 24 25 25 25 25 25 25 24 23 23 22 23 23 23 22 22 23
20 20 22 23 22 21 23 24 26 27 25 24 24 24 23 23 23 24 26 27 27 27 27 26 25 26 25 24 24 24 24 25 26
21 20 20 21 22 24 25 25 26 27 27 27 27 27 26 25 24 25 25 27 28 28 29 28 26 26 28 28 27 26 26 27 28
19 20 20 22 24 25 26 28 29 29 31 32 31 29 28 28 28 28 27 28 29 30 30 30 29 29 30 35 35 33 28 29 30
20 19 21 23 24 23 24 27 31 33 33 35 36 35 33 32 33 32 32 32 32 32 32 32 32 30 31 33 37 38 31 34 34
20 21 21 23 25 24 25 28 32 34 37 42 40 40 39 38 37 37 36 34 35 36 34 33 34 33 35 36 40 44 44 39 37
24 23 24 24 25 25 26 29 33 37 42 44 47 45 40 37 38 38 38 37 41 42 44 43 41 38 37 40 44 54 52 51 51
31 29 29 28 27 26 30 36 40 42 45 47 49 47 43 40 39 40 42 44 47 52 51 46 44 43 44 51 53 62 60 60 56
27 27 28 32 34 35 37 39 38 41 42 47 48 49 48 52 51 49 51 56 60 59 56 53 50 51 52 57 60 63 62 64 59
35 33 33 35 37 39 40 41 42 44 48 46 48 51 54 55 59 58 58 62 62 65 65 62 61 54 56 61 63 63 65 64 64

GFSFLT1_prec_cthk_009.txt.gz
RH
20 16 16 15 12 12 11 12 10 15 20 18 13 14 17 17 21 24 22 17 14 12 12 12 12 11 9 9 8 8 7 7 7
19 18 16 15 13 11 10 10 11 11 13 14 13 15 17 18 20 21 21 15 14 12 12 12 12 12 11 10 10 9 9 9 9
17 17 17 18 15 14 13 11 12 12 12 12 13 14 17 18 20 21 20 16 14 13 12 13 13 13 12 12 11 11 11 11 11
13 17 17 21 18 17 15 14 13 13 12 13 13 13 17 18 20 21 19 16 16 15 14 14 14 14 14 14 13 13 13 13 13
12 14 18 19 20 20 18 16 16 15 14 14 14 14 16 17 18 18 19 19 17 17 16 15 15 15 15 14 14 14 14 14 15
12 16 16 16 18 18 18 18 17 17 17 16 16 15 15 18 19 20 21 22 21 21 20 19 18 17 17 16 15 15 15 15 16
16 17 16 15 16 17 17 17 17 17 18 19 19 19 18 19 21 21 23 24 23 23 23 23 22 21 20 19 18 16 16 16 16
16 16 15 16 18 16 16 17 16 17 18 19 19 19 19 20 21 22 23 24 25 24 25 25 25 24 22 22 22 21 18 17 17
16 16 15 15 17 17 17 17 16 16 18 19 20 20 20 19 20 21 22 23 24 25 25 26 27 27 26 24 23 24 23 20 19
20 20 18 16 14 17 18 17 18 17 17 19 21 21 21 21 20 21 22 22 23 24 25 26 28 29 29 28 25 24 27 25 23
21 21 18 15 14 15 18 19 20 21 20 20 22 22 22 22 22 22 22 23 23 24 25 27 27 29 30 30 30 27 26 26 27
20 20 19 18 17 17 18 19 20 24 25 24 24 24 24 22 23 24 24 24 24 24 26 27 28 29 30 30 31 32 31 30 32
26 23 18 21 21 21 21 22 21 22 25 25 26 27 27 25 27 26 26 26 27 26 26 26 28 30 31 32 34 37 35 32 35
27 27 24 23 25 24 24 23 23 22 25 27 29 29 29 30 31 29 29 29 29 29 28 29 30 32 34 36 37 38 39 36 39
30 30 30 27 29 28 29 29 29 29 27 31 31 32 35 38 36 35 34 33 34 34 34 35 36 36 38 41 38 38 40 41 42
35 36 33 31 30 29 30 31 30 28 30 35 35 41 41 39 39 39 37 38 39 42 43 43 44 47 46 45 42 39 39 40 41
37 37 32 31 33 31 29 32 31 30 34 42 48 45 41 38 38 39 40 42 44 44 48 51 53 53 53 51 48 45 43 42 44
43 44 43 42 39 37 36 40 45 44 44 47 51 51 47 42 41 40 44 46 47 50 54 55 56 58 55 50 48 48 48 48 54
45 46 48 47 46 45 45 46 47 50 52 53 49 53 55 55 50 44 49 54 52 55 58 59 59 59 57 54 54 52 53 57 61
47 47 47 49 51 51 52 53 55 55 56 53 52 55 59 59 58 55 50 54 57 58 61 61 63 63 62 61 66 62 58 61 66

GFSFLT1_prec_cthk_012.txt.gz
RH
18 16 15 14 13 12 12 13 12 13 15 20 13 13 16 18 19 19 20 20 14 13 12 11 11 11 10 10 9 8 7 6 6
16 16 16 15 16 12 12 11 12 12 13 13 12 13 16 16 17 18 20 18 15 14 14 13 13 12 12 12 11 10 9 9 8
13 14 15 16 19 15 13 13 14 14 14 13 13 14 16 16 17 18 19 19 16 16 16 16 16 16 15 15 14 13 12 11 11
11 13 17 19 20 17 16 16 15 16 16 16 15 16 17 18 18 20 21 23 21 20 20 19 18 17 17 17 16 16 14 13 13
11 14 15 15 19 18 19 17 17 17 17 18 19 19 20 21 22 22 23 23 22 22 23 22 22 20 19 19 19 18 18 16 15
11 13 16 15 15 15 16 18 17 16 17 17 18 19 19 21 22 21 22 23 24 24 23 24 24 24 23 22 21 21 20 19 18
13 15 16 14 13 13 15 15 16 16 16 16 17 18 19 19 20 21 21 22 23 24 23 24 25 26 26 25 24 24 23 21 21
16 16 16 15 14 13 13 15 16 16 16 16 17 18 19 19 20 21 21 22 24 25 24 23 24 26 27 27 27 27 27 26 24
20 20 19 18 17 16 15 14 16 17 17 16 17 18 19 20 20 20 21 22 23 24 24 24 24 25 26 28 28 29 30 29 29
21 21 22 21 19 17 17 16 16 17 19 19 19 20 21 22 22 21 21 21 22 24 25 27 26 26 26 27 28 29 31 32 32
28 26 22 20 22 22 20 19 19 18 19 21 22 23 24 24 24 23 22 21 22 24 25 26 29 30 30 30 29 29 31 33 35
28 28 29 29 25 26 26 26 25 24 24 22 23 24 24 23 24 24 23 22 24 25 25 27 28 29 31 34 35 37 37 35 38
30 30 31 32 32 29 27 28 28 27 27 26 26 26 26 27 27 28 28 29 30 29 29 29 29 30 30 33 37 40 43 47 44
31 30 31 34 35 34 31 29 32 31 30 30 30 30 29 29 30 31 34 36 35 33 32 33 33 33 34 36 40 45 48 47 46
34 34 35 38 39 37 35 35 35 36 35 36 36 34 32 31 31 35 40 39 38 37 38 39 40 40 42 45 47 48 47 45 46
40 40 40 42 44 41 39 40 40 37 38 43 38 37 35 34 36 41 43 43 43 43 44 44 44 45 51 52 56 53 50 48 45
42 43 44 44 46 46 46 47 47 45 44 46 51 49 43 39 39 40 42 41 42 43 45 46 46 51 53 55 57 57 56 53 50
47 47 48 48 48 50 51 52 53 54 53 54 59 61 58 53 47 46 48 49 48 45 46 48 50 54 57 57 58 60 57 54 52
47 47 48 47 48 48 50 55 56 58 57 59 57 56 60 61 56 48 49 54 52 50 53 54 54 56 62 62 63 64 63 58 56
41 42 43 43 44 45 46 51 55 56 56 55 58 58 58 60 61 57 54 58 57 61 64 65 63 63 65 67 68 71 70 65 67

GFSFLT1_prec_cthk_015.txt.gz
RH
21 18 17 16 14 13 14 15 14 15 20 20 16 14 16 17 16 16 16 17 15 13 13 13 13 13 13 13 12 11 10 8 7
17 17 17 16 15 16 13 12 14 15 16 17 17 15 16 17 17 17 17 18 18 17 18 18 17 17 16 15 15 14 13 12 11
19 16 16 16 16 17 15 13 14 15 16 17 18 18 19 20 20 23 24 23 22 20 20 20 20 19 18 18 17 17 16 15 15
15 14 15 16 15 15 16 15 15 16 16 17 17 18 21 22 23 24 24 23 23 21 21 21 22 22 21 21 20 19 19 18 18
12 12 13 12 12 13 16 16 16 17 17 16 17 18 19 20 22 23 23 23 22 23 21 21 22 23 24 24 23 22 22 21 20
11 12 13 14 13 13 15 15 15 17 17 17 16 17 18 19 21 22 22 22 22 22 24 21 22 23 24 25 25 25 24 24 23
14 15 16 16 16 16 16 16 15 15 16 16 16 16 18 18 19 21 22 22 22 23 25 23 22 23 24 25 26 27 27 27 27
18 19 20 20 20 19 19 18 17 15 14 15 16 17 18 18 19 19 20 22 22 22 25 29 23 22 24 25 26 27 28 28 29
22 21 22 23 24 24 23 22 21 19 18 16 15 16 18 19 20 20 21 22 23 23 23 28 28 25 25 25 26 27 28 28 30
30 31 31 29 27 28 28 26 25 24 22 20 18 18 17 18 20 21 22 23 23 23 22 28 29 31 33 33 30 28 28 29 30
30 31 31 32 33 32 29 29 30 29 29 27 26 24 23 22 21 22 23 23 23 23 23 24 30 34 41 39 36 36 35 32 33
29 30 30 31 33 34 34 33 32 31 32 30 31 31 30 28 26 26 26 25 25 25 25 26 28 30 33 36 38 39 40 40 41
27 28 29 30 32 34 34 35 34 33 32 33 33 35 34 31 31 32 30 30 31 30 31 31 33 32 32 35 37 41 42 45 49
36 37 36 36 37 39 40 41 41 37 35 36 36 35 36 34 33 31 31 32 34 34 36 41 41 39 39 39 41 42 43 45 50
42 42 42 43 44 43 45 48 48 46 43 43 40 38 35 34 33 32 32 32 35 42 44 45 45 46 47 48 47 45 46 49 51
47 47 48 48 49 49 50 52 54 55 56 58 53 51 49 45 42 44 43 42 42 44 44 45 47 47 49 49 49 52 55 56 56
50 51 51 52 52 53 54 57 57 57 60 62 62 57 52 49 48 48 47 47 48 44 43 46 45 44 45 47 48 54 57 61 61
48 48 47 46 46 44 45 46 48 49 51 54 59 58 55 52 47 47 45 45 48 48 45 48 50 52 50 51 54 56 60 62 63
40 40 40 41 41 42 44 47 49 52 53 55 60 62 63 66 63 57 53 50 49 48 48 50 55 58 59 59 62 61 61 64 66
37 38 39 40 42 44 46 49 52 57 59 60 63 66 66 67 74 68 71 89 71 65 61 58 62 63 64 61 64 66 68 67 68

GFSFLT1_prec_cthk_018.txt.gz
RH
22 20 18 18 17 15 15 19 14 17 20 22 26 21 17 16 17 18 19 21 21 18 18 18 18 16 15 15 15 14 14 13 12
21 17 17 16 15 15 14 15 15 15 18 20 22 23 20 20 21 21 23 25 24 25 20 19 19 19 18 17 17 17 16 16 15
20 14 13 13 14 14 16 16 15 14 15 16 17 19 19 19 22 22 22 24 24 27 21 20 20 20 20 19 19 19 19 18 18
14 14 13 14 16 20 20 19 18 16 16 16 16 17 18 18 20 21 21 23 24 26 27 20 19 20 20 21 21 21 21 21 20
10 12 12 14 16 21 21 21 17 17 16 16 16 16 17 18 19 20 21 22 24 24 28 25 20 20 20 20 22 23 23 24 23
13 14 14 16 18 18 18 18 18 17 16 15 15 15 15 17 18 19 20 22 23 24 27 29 27 21 21 20 20 22 24 25 25
18 18 19 20 21 21 21 21 21 21 18 16 15 14 15 16 17 19 20 21 23 24 24 27 30 28 23 21 21 22 24 26 26
22 22 22 23 24 24 25 25 24 23 22 20 17 16 14 14 16 17 19 20 22 22 23 25 31 31 30 24 22 23 24 26 27
29 29 29 29 29 29 29 29 29 28 27 25 24 22 19 17 16 17 18 19 20 21 22 23 27 31 31 30 28 25 25 27 28
31 31 31 31 32 33 33 31 30 30 31 30 29 28 28 26 23 20 18 19 20 21 21 21 22 27 29 37 32 30 29 30 31
27 28 30 31 33 33 33 34 35 33 32 31 33 33 33 32 31 29 26 25 22 22 23 23 23 24 28 31 37 39 38 35 36
26 26 28 32 34 35 34 34 36 36 36 34 33 33 33 32 32 30 29 29 29 29 27 26 26 25 27 30 33 39 43 48 52
38 38 37 37 40 41 41 41 42 42 42 42 40 38 38 37 36 36 35 33 30 30 31 32 32 31 31 35 41 40 40 42 43
41 40 40 41 42 44 46 47 49 49 49 50 50 48 45 44 42 39 37 37 37 35 33 35 40 44 46 47 48 47 47 46 45
44 46 47 49 49 51 52 53 55 55 57 58 56 55 54 54 51 51 50 49 46 45 45 43 41 43 46 49 50 49 48 49 50
50 51 52 53 52 52 52 51 50 48 50 51 46 47 46 45 45 45 44 43 42 43 45 45 44 42 40 40 42 45 48 50 52
46 46 46 46 44 42 41 42 43 44 47 51 53 51 49 45 48 50 50 50 50 50 48 47 46 49 50 45 44 44 45 47 47
38 38 38 38 38 39 41 44 47 49 50 54 58 60 56 54 49 49 49 51 53 56 59 62 57 55 56 56 55 56 57 58 55
38 38 38 39 39 38 36 35 36 37 39 42 48 54 57 59 54 54 61 60 65 60 64 66 70 77 68 63 60 63 65 67 71
35 35 32 30 29 29 29 29 29 30 30 33 37 41 44 49 55 48 49 52 58 59 60 63 72 82 87 85 76 73 71 75 77

GFSFLT1_prec_cthk_021.txt.gz
RH
16 15 16 15 16 15 15 21 17 19 20 24 25 26 25 20 20 20 22 21 22 22 27 20 19 19 18 17 16 15 15 14 13
19 14 14 15 15 16 15 14 16 19 18 22 24 25 26 23 21 22 23 24 25 23 27 20 20 20 20 19 18 17 16 16 15
20 17 13 14 15 17 18 17 14 15 15 17 21 22 25 23 19 21 21 21 24 25 28 26 20 20 20 20 20 18 18 18 18
13 16 13 14 17 20 21 21 21 20 17 16 16 18 18 21 19 19 20 21 23 25 25 28 27 23 20 20 20 20 19 18 19
14 14 15 16 17 18 21 21 22 21 21 16 16 16 16 16 16 17 18 20 22 23 24 27 29 28 24 21 21 21 21 20 20
18 18 18 18 19 21 21 23 25 25 24 19 18 17 16 15 15 16 17 19 20 22 23 24 27 29 29 24 23 22 22 21 21
22 22 22 22 23 23 24 24 24 24 24 24 23 20 18 16 14 14 15 16 17 18 20 21 26 28 29 29 25 24 23 21 21
28 28 28 28 29 29 29 29 29 29 29 28 28 27 25 22 19 16 15 15 16 17 18 20 21 24 27 28 29 27 26 25 23
31 31 32 33 34 34 34 32 31 30 30 30 29 29 29 28 27 24 23 20 17 18 18 19 19 20 24 28 27 27 27 24 24
29 29 30 31 31 31 31 33 34 34 34 33 31 30 30 30 29 27 27 28 26 23 20 19 20 20 23 27 27 28 33 31 27
28 28 29 31 34 35 35 35 35 35 36 36 37 38 37 34 32 30 28 28 28 28 27 26 24 23 24 27 28 28 27 37 38
37 36 37 39 40 40 40 42 42 41 41 40 41 42 43 43 41 38 36 34 33 34 34 33 32 31 30 31 31 29 27 29 36
40 40 40 42 43 44 46 47 48 47 48 49 49 48 49 49 48 47 45 44 44 42 41 44 44 43 41 41 43 43 42 41 41
44 46 47 48 49 51 52 49 49 48 47 46 44 44 45 46 45 45 46 47 46 46 45 44 43 43 44 45 44 44 45 46 46
48 49 49 51 51 50 48 46 46 43 42 41 39 38 37 37 37 38 40 40 41 44 48 49 48 47 48 49 48 47 47 48 49
47 46 46 44 42 40 39 39 38 37 40 43 41 41 39 38 39 42 42 43 44 44 46 47 50 51 52 53 53 56 54 51 48
38 38 39 39 38 37 36 35 35 34 33 38 36 38 36 39 40 40 42 43 45 47 51 53 54 54 56 59 60 59 61 62 58
38 36 34 34 34 33 32 29 28 27 28 29 34 40 39 39 35 37 38 40 42 43 46 48 54 61 65 66 67 69 68 66 65
36 36 37 34 31 30 30 30 30 30 30 30 31 31 32 36 32 33 35 34 38 38 38 43 46 48 52 62 68 74 80 80 75
37 34 32 32 32 31 30 30 29 29 29 30 31 32 35 37 39 33 34 32 36 37 35 36 39 43 50 52 56 65 78 86 98

GFSFLT1_prec_cthk_027.txt.gz
RH
20 20 19 18 18 17 15 14 16 20 18 18 18 20 21 22 24 24 24 23 23 26 21 25 23 22 21 19 19 18 16 15 14
21 22 18 18 17 17 16 16 15 14 13 14 14 19 21 20 22 25 24 24 25 26 21 22 23 19 17 17 18 18 18 17 16
19 20 16 16 15 14 19 20 20 19 18 16 14 13 14 15 19 22 23 22 21 20 21 25 24 26 21 17 17 17 17 18 17
15 16 14 13 12 13 13 16 19 20 19 17 15 15 15 14 14 18 20 21 20 17 17 19 24 24 25 23 20 18 17 17 17
21 20 19 17 16 16 17 19 20 20 21 20 19 19 18 17 18 20 21 22 17 16 17 18 19 25 23 27 23 19 17 18 18
32 31 25 25 25 25 26 26 27 27 27 28 29 28 26 28 28 27 25 24 19 17 17 18 18 18 22 22 25 25 23 20 18
35 30 29 29 29 30 30 31 30 30 31 34 33 32 31 31 30 28 27 26 24 20 16 14 15 16 18 20 23 24 26 26 26
37 34 32 29 30 28 29 31 32 33 34 33 33 33 32 32 31 30 28 25 25 24 23 21 17 15 15 16 18 21 24 26 27
36 35 34 33 33 35 34 36 36 36 34 35 34 35 36 35 35 34 33 32 33 34 32 29 26 24 21 17 16 16 17 19 23
37 37 37 37 37 38 40 40 41 41 43 43 43 44 44 44 44 42 41 41 41 42 43 43 41 36 34 33 31 27 24 22 22
41 41 42 43 44 45 46 47 47 47 48 48 48 48 49 48 48 47 45 43 42 41 42 45 46 46 43 40 39 38 37 35 31
43 45 47 48 48 49 49 50 52 53 52 50 49 46 45 45 44 43 43 43 43 41 41 40 43 46 48 49 49 48 46 44 42
50 52 52 51 51 53 54 53 49 45 43 42 41 42 40 39 39 39 41 40 40 40 41 42 42 41 45 48 51 53 58 60 60
53 53 51 51 52 50 45 39 37 36 35 36 37 35 34 33 32 33 36 38 40 40 40 39 39 41 44 46 48 49 49 54 59
51 48 45 41 38 36 34 35 35 36 36 34 31 29 28 26 30 33 36 37 44 40 35 37 40 42 47 47 46 51 54 53 53
38 35 34 35 36 38 38 39 37 32 30 27 27 24 24 25 30 28 33 33 31 25 28 34 40 44 45 42 46 54 55 57 58
34 36 38 41 42 40 34 29 26 25 25 24 22 23 20 24 22 19 20 21 24 25 27 31 30 32 32 34 34 34 41 41 47
42 45 44 41 35 30 26 23 22 22 19 20 21 23 23 20 20 19 22 22 20 21 23 23 20 21 23 26 33 38 42 45 49
45 44 41 35 30 26 21 19 19 21 20 18 20 20 21 26 26 21 18 20 21 17 19 20 19 22 27 28 26 28 31 40 44
43 38 32 28 24 23 20 19 19 20 20 19 20 21 23 23 22 21 20 19 18 18 22 22 22 20 17 22 29 30 28 31 39

GFSFLT1_prec_cthk_030.txt.gz
RH
20 18 17 16 14 14 14 14 16 15 14 15 17 16 15 17 16 18 22 21 20 24 24 21 19 20 19 19 18 17 17 16 16
19 20 16 16 15 14 13 14 14 13 13 13 13 12 10 10 11 12 19 21 20 23 24 20 19 19 18 16 16 16 16 16 16
18 14 12 12 12 12 11 11 13 15 14 13 13 12 12 12 12 11 13 18 20 17 15 16 18 20 24 21 17 15 16 16 16
20 17 15 13 12 12 12 13 14 16 17 17 17 17 17 16 15 14 14 16 21 21 16 16 17 19 22 24 24 20 15 15 16
29 25 23 23 22 22 22 22 23 23 23 23 24 25 25 24 22 22 21 21 21 19 16 15 16 18 19 24 24 25 23 19 16
38 35 30 28 26 26 27 28 28 29 30 31 34 33 32 31 29 28 27 26 26 25 22 19 17 16 16 17 20 22 25 25 24
38 35 32 30 29 28 28 29 29 29 29 29 28 29 28 27 26 27 28 29 30 30 28 26 24 20 16 14 14 16 19 23 25
36 35 34 33 32 31 31 31 31 33 33 34 35 34 34 35 36 36 35 35 36 35 36 36 35 33 30 27 22 18 17 20 20
36 37 37 35 34 34 36 39 41 42 43 43 42 42 42 44 43 44 44 45 45 45 45 45 45 45 44 42 39 35 32 27 24
39 39 40 42 42 43 43 44 46 47 48 48 49 48 48 48 47 48 47 47 47 46 46 46 45 45 46 48 48 45 41 39 37
46 46 47 47 49 49 49 49 48 48 49 48 48 45 42 44 43 40 40 41 43 44 44 43 43 44 44 44 49 55 57 52 46
49 50 52 53 54 53 52 50 49 49 42 38 37 39 39 37 37 37 37 38 40 42 41 40 40 40 42 42 44 45 50 60 65
51 52 54 56 54 53 51 46 40 36 34 33 34 36 36 35 31 31 31 32 35 37 40 41 43 46 42 41 39 40 42 46 51
55 55 54 49 45 39 35 32 33 34 35 35 34 30 26 23 22 25 29 29 32 37 37 43 39 34 33 38 48 52 53 50 49
52 46 39 34 32 33 35 37 38 36 31 26 23 20 18 19 22 22 25 28 28 30 34 34 33 27 31 34 40 45 47 48 49
38 33 30 32 35 38 39 37 33 28 23 19 16 15 16 17 18 24 21 20 20 19 19 21 23 24 27 32 36 37 36 30 33
33 33 36 39 40 40 38 32 25 20 19 18 17 17 16 19 16 16 16 17 18 17 17 18 19 18 18 18 17 17 20 25 29
38 39 40 40 40 36 27 22 20 20 19 18 19 21 21 18 19 19 18 18 14 15 14 13 12 12 15 14 16 19 21 26 29
41 40 40 37 29 24 22 22 22 20 19 19 19 20 21 25 26 19 13 14 13 11 13 13 18 18 16 11 10 13 16 20 22
41 40 34 27 24 23 22 22 21 20 21 21 21 20 18 18 18 17 15 15 15 14 14 17 14 12 12 14 16 12 12 13 18

GFSFLT1_prec_cthk_033.txt.gz
RH
15 12 12 12 12 12 12 12 14 14 13 12 12 13 12 10 11 11 14 16 17 18 22 21 20 18 19 19 19 19 18 17 16
14 11 10 11 11 11 12 12 12 12 12 12 12 12 11 11 11 12 12 17 18 20 21 23 19 17 18 17 17 16 16 16 16
22 17 14 11 10 10 10 10 11 12 14 13 13 14 14 15 15 15 15 16 19 22 23 20 18 18 24 25 25 19 18 16 16
28 25 22 21 21 20 19 19 20 20 20 20 21 22 23 23 23 22 21 20 20 20 26 21 16 16 18 26 24 26 26 22 19
34 32 31 30 28 27 27 28 28 28 29 31 32 34 34 34 33 33 33 32 30 29 32 28 23 20 19 20 23 28 27 27 26
38 34 32 31 31 31 31 31 30 30 30 31 31 31 31 30 31 31 31 31 29 30 31 31 31 30 27 22 19 20 24 24 29
37 36 34 34 33 33 33 33 33 33 34 36 37 38 38 37 38 36 35 35 34 36 36 36 36 37 36 35 33 28 23 23 24
36 37 36 35 35 34 35 37 39 39 39 39 41 41 43 43 42 42 43 45 45 45 45 45 45 45 46 45 44 44 42 38 33
38 38 37 38 39 40 40 40 43 44 45 46 45 44 44 44 44 43 43 43 45 47 47 48 48 47 46 45 47 48 49 48 46
42 43 43 42 43 44 45 46 46 46 45 44 43 42 39 37 38 42 41 41 42 43 45 45 47 51 54 50 51 53 52 56 59
48 48 48 49 49 50 49 49 49 48 46 43 40 36 33 35 36 37 37 37 39 39 38 42 44 44 44 45 46 50 51 51 54
52 52 52 52 53 53 52 50 47 41 33 29 30 32 34 35 36 33 30 27 27 27 31 34 37 44 48 49 53 49 46 41 42
54 55 54 54 53 52 47 36 28 29 31 33 34 32 29 26 23 20 19 20 24 28 32 35 34 33 41 42 42 39 34 44 52
59 58 56 52 43 34 29 30 31 32 34 33 29 24 19 17 17 18 20 21 25 26 27 29 29 33 31 33 36 32 31 32 48
58 49 40 36 33 31 32 34 33 32 30 26 21 18 17 17 16 17 19 21 19 18 20 22 22 22 27 29 25 26 29 29 28
41 37 37 36 35 35 34 33 32 28 23 20 18 17 17 17 18 18 17 17 17 17 17 16 15 15 16 16 16 16 16 17 20
39 40 39 37 37 35 31 27 23 21 20 20 18 17 17 18 17 18 16 14 15 14 13 12 12 11 11 11 12 13 12 12 17
41 39 39 38 35 31 26 22 21 20 20 20 21 21 21 18 17 15 16 16 14 13 12 12 11 13 15 16 15 14 10 13 15
42 42 40 35 29 24 22 22 21 21 21 21 21 21 21 20 21 19 15 15 13 12 12 12 12 16 17 13 13 12 15 14 17
44 41 37 29 25 23 23 23 23 22 22 21 20 18 18 18 20 19 17 15 13 12 14 12 15 14 15 14 15 12 12 15 25

GFSFLT1_prec_cthk_036.txt.gz
RH
13 10 11 12 13 14 14 14 16 17 15 14 13 13 14 12 11 11 12 13 14 18 22 22 24 22 19 20 20 21 20 19 17
16 12 11 10 11 11 12 13 14 14 14 14 13 13 13 13 14 14 14 14 17 18 22 23 23 23 21 25 24 20 18 18 17
30 23 20 18 17 15 15 15 16 16 19 17 18 19 20 22 23 22 21 18 19 21 24 25 25 25 25 26 28 27 27 22 20
31 30 30 28 27 26 26 26 26 25 26 27 28 29 30 31 33 32 32 32 31 29 29 33 32 30 26 26 26 29 29 34 29
37 35 34 32 31 31 31 31 31 31 31 31 31 31 31 32 33 33 34 35 35 34 34 33 33 33 32 30 25 22 26 26 35
34 34 35 35 35 34 34 33 33 33 33 35 37 38 38 37 37 37 38 37 36 36 35 34 34 35 34 34 34 32 29 25 24
36 35 35 34 34 34 35 36 37 39 39 40 40 41 41 41 42 42 42 42 42 42 42 44 42 42 42 42 40 39 38 37 36
38 37 36 36 36 37 40 41 41 41 42 43 42 41 40 40 40 42 40 41 41 45 50 47 51 51 51 49 48 46 48 48 49
41 40 42 44 44 43 44 44 44 44 45 46 44 42 40 40 38 36 38 40 41 42 41 44 49 51 52 56 57 58 57 58 58
44 43 46 48 48 48 47 47 48 49 49 48 45 43 39 37 36 35 37 38 39 39 40 41 40 42 45 49 50 53 54 59 60
48 47 49 51 53 52 52 52 51 49 45 37 34 30 30 32 33 33 33 32 30 29 29 30 30 32 34 37 41 44 48 51 50
52 52 52 55 57 54 54 51 45 39 33 29 30 31 31 30 28 25 23 22 21 21 23 25 27 29 32 34 37 42 45 50 47
52 55 59 60 58 52 44 36 32 31 30 30 30 29 27 23 20 19 20 22 23 24 25 27 28 29 31 30 33 31 37 40 41
57 59 61 57 43 36 35 35 33 32 31 29 25 21 20 20 21 21 22 21 20 21 21 21 21 22 23 23 25 27 30 28 27
57 53 43 39 37 38 36 35 32 30 26 21 19 19 19 19 18 19 20 20 19 18 18 18 17 16 16 16 16 18 18 20 20
43 40 40 39 38 36 33 31 28 23 18 17 18 19 19 19 21 20 18 16 15 14 14 13 13 12 12 12 12 12 12 14 15
39 40 40 40 38 35 30 25 20 18 19 20 20 20 19 20 19 17 16 15 15 15 14 14 13 12 12 12 12 13 13 14 16
41 42 43 42 38 30 23 20 21 21 22 22 23 21 20 18 17 17 17 16 15 13 12 12 11 11 11 12 11 11 12 14 17
45 45 44 39 30 22 22 22 23 23 23 22 21 21 21 21 20 18 16 15 13 12 11 11 10 10 11 10 11 10 12 14 15
47 44 39 31 26 23 24 25 24 23 21 21 21 20 19 20 22 20 16 12 10 9 9 8 8 9 10 11 11 14 14 15 20

GFSFLT1_prec_cthk_039.txt.gz
RH
15 12 10 11 11 12 12 13 15 16 16 14 14 14 14 13 12 12 12 13 14 15 17 21 21 23 24 25 26 25 25 26 25
25 20 16 14 13 11 11 12 13 14 15 15 16 16 17 18 20 21 20 17 15 17 20 24 25 29 29 25 24 25 25 23 20
32 29 28 26 24 23 23 22 22 21 21 22 24 24 26 28 29 29 28 27 26 24 23 24 27 26 25 28 30 32 33 31 28
34 34 34 33 32 32 32 31 31 31 31 31 31 31 32 31 32 34 34 36 36 36 36 35 34 37 36 35 31 27 26 30 30
34 34 34 34 34 34 34 34 34 33 33 33 34 35 37 37 38 38 38 38 37 36 35 35 34 35 33 33 32 31 30 29 27
36 36 35 35 35 35 35 35 36 37 40 42 43 43 43 43 43 42 42 42 42 42 42 41 40 41 40 39 36 34 33 33 32
40 38 36 37 38 37 38 40 41 42 43 43 44 43 42 41 40 40 40 40 40 41 43 48 51 50 51 49 46 45 44 44 42
41 40 38 39 42 44 46 46 45 45 44 45 45 45 44 42 42 41 39 37 36 37 36 40 47 48 50 52 52 52 54 57 57
44 43 42 42 46 49 51 52 50 49 48 48 47 44 44 43 40 37 36 36 37 38 40 40 40 39 41 48 55 59 60 64 65
50 47 46 46 48 52 54 55 53 51 50 46 41 39 39 34 31 32 32 32 32 32 32 32 31 31 33 34 38 42 46 48 51
55 51 49 50 52 56 57 57 54 49 41 39 38 33 31 30 30 29 28 26 24 24 24 23 24 24 25 28 32 33 36 38 40
57 55 54 54 56 59 58 55 45 39 37 34 33 32 30 28 24 22 20 20 21 22 22 23 24 26 28 29 31 31 32 33 36
56 55 55 56 58 58 46 38 36 36 36 34 32 28 23 20 18 18 21 23 24 24 23 23 23 24 26 26 27 29 29 29 30
58 56 56 55 45 39 39 38 37 35 32 28 24 21 18 17 18 19 19 21 22 22 20 19 20 20 19 18 17 18 20 21 21
56 53 43 37 39 39 38 36 34 29 24 20 18 17 17 17 20 20 22 21 19 18 17 16 16 15 15 14 14 13 13 13 14
49 39 36 37 38 38 37 33 27 21 19 17 17 18 19 20 21 22 19 17 17 17 16 16 15 14 13 12 12 12 11 12 16
40 39 40 41 42 40 34 26 21 18 18 19 20 20 20 20 20 18 18 19 18 17 16 15 14 13 12 11 11 10 10 11 16
42 44 45 44 41 33 26 20 18 20 22 22 22 20 20 19 20 20 19 18 16 15 13 12 10 10 9 8 8 8 8 11 15
46 47 46 41 35 28 21 20 24 24 23 22 22 23 23 23 21 18 16 15 13 11 10 8 7 7 6 6 7 7 8 12 15
49 48 45 42 35 24 23 25 25 24 23 23 24 24 23 21 23 20 16 12 9 8 7 7 6 7 8 9 9 10 14 15 16

GFSFLT1_prec_cthk_042.txt.gz
RH
20 17 14 12 11 11 11 12 14 15 16 15 14 14 14 14 15 15 14 13 13 14 16 18 22 22 21 21 20 22 23 26 25
31 29 26 23 21 19 18 17 17 17 17 19 20 21 22 24 24 24 23 22 21 19 19 20 24 26 25 31 29 25 24 24 24
34 34 32 31 31 30 31 30 30 30 29 30 31 31 32 32 31 32 31 32 32 31 30 29 29 31 32 29 28 29 28 33 32
35 34 34 33 33 33 34 34 34 34 34 34 34 35 36 36 37 37 37 37 36 36 35 34 33 31 32 32 32 32 33 31 29
37 37 36 35 35 35 36 36 37 38 38 39 41 43 43 43 42 43 43 42 42 42 41 40 40 39 37 37 37 34 32 30 29
38 40 38 37 38 38 38 38 39 41 43 44 45 45 44 44 42 42 41 39 40 40 44 51 53 52 54 51 52 49 44 41 40
42 42 40 39 39 41 43 44 46 47 45 46 45 45 45 45 43 42 43 42 40 39 38 40 41 47 50 54 54 54 51 50 46
45 44 43 42 41 45 49 49 51 52 51 49 48 47 45 44 43 41 40 38 34 34 35 37 37 40 45 48 51 54 56 61 64
50 48 48 47 49 50 51 51 53 53 51 51 46 40 38 38 38 36 33 31 31 32 32 32 31 32 32 34 35 37 44 52 54
56 54 52 52 53 53 52 53 55 54 50 45 40 39 37 33 31 31 29 28 27 27 26 25 25 25 25 26 27 29 31 32 36
62 61 58 57 56 56 53 56 55 49 43 41 38 34 33 32 31 27 23 21 21 20 20 21 22 23 24 24 24 25 26 28 29
65 64 58 57 57 57 55 54 45 40 38 36 36 35 33 29 24 20 19 19 20 21 22 22 24 25 25 26 28 29 30 31 31
66 63 59 58 58 55 43 36 38 38 37 35 33 29 23 20 19 19 19 21 21 21 22 23 22 21 21 21 20 20 20 20 21
65 60 59 59 51 35 36 37 37 36 33 28 23 20 18 18 18 19 20 20 20 21 20 18 18 17 17 17 17 17 16 15 15
69 59 58 42 35 36 37 37 35 30 25 20 18 18 18 18 19 20 20 21 21 19 18 17 18 18 17 16 14 14 13 12 12
61 56 44 38 39 41 41 36 30 23 20 18 18 17 18 17 19 20 21 20 18 19 20 19 17 15 14 13 12 12 11 10 10
57 48 41 42 44 43 38 32 24 20 19 19 18 18 19 20 20 20 21 21 21 20 17 16 14 13 12 11 10 9 9 9 11
51 42 45 45 44 42 38 28 22 21 21 19 19 20 21 22 23 23 22 20 18 16 15 14 12 11 10 9 9 8 7 8 14
44 46 45 46 45 41 36 28 24 23 22 22 22 23 23 23 22 22 20 18 16 15 13 11 10 9 8 8 8 8 8 14 16
47 46 47 47 43 40 35 27 24 24 24 24 25 25 25 24 25 21 19 17 14 12 10 9 9 9 9 9 9 10 16 17 17

GFSFLT1_prec_cthk_045.txt.gz
RH
23 20 17 16 14 14 14 15 16 16 16 15 14 15 16 18 19 20 19 18 16 16 16 17 20 21 21 22 22 19 21 22 24
30 29 28 27 26 25 25 24 24 24 24 26 28 26 26 28 28 28 28 27 27 26 22 21 22 28 30 27 29 29 25 23 25
32 31 31 31 32 33 33 33 33 33 34 34 34 35 34 35 34 34 33 32 33 33 33 32 31 28 30 30 28 26 28 28 31
35 34 33 33 32 32 33 33 34 35 36 37 37 38 40 40 41 40 40 39 39 38 38 39 38 35 34 33 33 32 32 30 28
39 37 36 36 36 36 37 36 36 36 37 39 42 43 43 44 44 42 41 40 40 40 41 49 50 54 57 51 52 48 46 40 36
39 39 39 39 39 39 40 40 42 43 45 44 44 44 43 42 44 43 41 41 40 40 43 43 48 52 55 59 64 60 58 50 50
44 44 43 41 41 41 42 45 47 48 48 48 47 48 47 45 44 43 42 41 40 39 39 36 34 35 39 45 50 53 55 61 62
50 47 46 46 46 47 49 50 50 51 51 51 49 48 42 40 38 38 37 36 35 35 34 32 34 35 36 37 38 41 45 48 52
54 51 50 51 52 54 52 52 50 51 53 51 45 41 40 39 37 34 33 32 31 31 29 29 29 29 28 27 27 27 27 29 32
58 59 58 57 58 59 54 53 53 52 49 46 44 42 38 35 34 33 31 29 26 24 22 22 22 21 20 21 21 22 24 25 26
63 63 64 63 62 59 55 54 54 47 41 41 40 38 36 34 33 30 25 21 20 20 20 21 21 22 22 23 24 25 26 27 28
65 65 65 64 61 57 56 55 42 35 35 37 36 35 32 28 25 22 20 20 21 22 22 22 21 21 21 21 21 21 22 22 22
67 67 65 64 57 57 53 39 35 35 36 35 31 27 23 20 19 19 20 21 21 20 20 19 19 18 18 17 17 16 17 17 17
73 68 65 61 59 48 40 37 36 37 33 28 23 20 19 18 18 19 20 20 19 20 20 20 18 18 18 18 18 17 17 16 15
76 77 65 59 48 42 40 40 40 36 29 23 20 19 18 18 19 19 19 19 21 21 19 19 20 19 19 17 16 15 14 13 13
85 84 65 53 43 44 44 43 40 33 25 21 19 18 19 18 18 18 19 19 20 21 20 20 19 18 16 15 15 14 13 13 12
87 66 57 46 45 46 46 42 38 31 25 21 20 20 20 20 21 21 22 22 22 22 21 20 19 17 16 15 14 13 12 11 11
77 65 51 47 48 48 44 40 35 28 24 23 22 22 22 21 23 23 24 23 23 22 19 18 17 16 15 14 13 12 10 9 10
78 55 48 49 49 48 44 40 34 28 25 24 23 23 23 23 24 25 25 23 21 20 19 17 16 15 14 13 12 10 10 11 19
58 52 51 50 51 49 47 40 35 30 28 26 25 25 25 24 24 25 23 22 21 19 17 16 14 13 12 11 11 10 13 18 18

GFSFLT1_prec_cthk_048.txt.gz
RH
23 20 17 16 15 16 17 18 19 18 17 16 13 14 16 19 25 24 24 20 19 17 16 17 19 21 21 21 23 22 22 25 27
28 27 26 25 25 24 24 25 25 25 25 28 33 30 32 34 38 37 34 32 31 30 28 26 24 24 28 27 25 29 34 29 27
30 29 29 29 30 31 31 32 32 32 33 34 35 36 36 38 40 40 38 37 37 36 36 35 35 33 31 31 32 30 27 25 24
33 33 32 32 31 31 31 31 33 33 34 34 36 37 39 42 45 43 43 42 42 40 39 43 48 48 46 45 41 39 37 34 33
35 36 36 35 35 35 35 35 36 37 39 41 42 44 44 45 45 45 42 40 40 40 42 45 49 52 57 61 64 64 62 54 49
41 38 38 37 37 38 38 38 39 42 45 46 47 47 49 50 48 47 42 41 40 40 39 39 40 42 48 49 50 54 57 61 64
47 46 44 42 41 40 42 44 45 47 49 50 50 50 50 48 45 42 39 39 38 37 35 35 35 34 34 35 38 45 53 55 55
53 51 49 48 47 48 50 51 51 51 50 51 52 50 45 43 41 38 36 33 33 34 33 32 33 32 31 31 33 33 33 34 38
58 56 54 53 53 55 56 56 54 52 53 51 46 44 43 42 39 35 34 33 32 32 30 28 25 24 23 23 23 23 23 24 25
61 57 58 60 60 62 61 57 55 54 52 43 39 39 38 38 37 35 33 30 27 25 22 20 19 19 20 20 20 20 21 21 21
67 65 65 64 64 64 64 57 57 54 40 38 35 34 34 33 31 28 25 23 21 20 20 20 21 21 21 21 20 20 20 20 21
70 69 68 67 63 63 61 59 51 39 39 35 33 31 28 24 22 21 21 20 20 20 21 21 20 19 17 16 16 17 17 17 17
74 71 71 70 63 63 61 47 41 40 39 32 28 24 22 21 21 20 20 20 19 19 19 19 18 17 16 16 16 17 17 17 17
78 74 75 73 64 63 47 44 43 42 38 31 28 25 22 21 20 20 20 20 19 19 18 18 17 17 18 18 18 19 18 18 17
80 80 83 76 69 59 47 45 45 42 38 33 28 24 21 20 20 20 21 20 18 18 19 19 19 19 19 19 19 17 16 15 15
87 87 88 80 65 54 49 49 46 40 35 30 26 22 21 21 21 21 21 20 20 20 20 20 19 19 18 17 16 17 17 16 16
90 91 82 68 60 53 51 48 44 40 35 29 25 24 25 24 23 22 21 22 22 22 21 20 19 18 18 18 18 18 17 16 15
94 88 82 69 63 59 52 48 45 41 35 29 26 27 28 25 25 24 24 24 23 22 21 21 21 20 19 19 18 17 16 15 14
91 88 86 69 54 54 53 50 46 41 35 31 29 27 26 26 26 28 28 27 27 26 25 22 21 20 19 18 17 16 15 14 16
93 89 72 58 54 55 54 51 47 42 37 34 30 28 28 28 30 28 29 29 29 28 27 25 21 22 21 20 18 18 17 19 19

GFSFLT1_prec_cthk_051.txt.gz
RH
25 23 20 17 15 17 21 21 21 21 19 15 13 16 18 23 31 29 29 29 26 26 24 21 21 22 23 23 22 22 22 23 24
27 27 26 25 25 25 25 26 26 26 26 27 29 30 33 35 43 41 38 36 32 32 31 31 31 29 28 30 30 26 27 31 28
30 29 28 28 29 30 30 30 30 31 33 33 33 33 33 38 44 42 43 40 39 39 38 38 42 41 39 35 33 33 36 30 28
32 33 33 33 32 31 31 32 33 33 33 34 35 37 39 40 46 43 46 41 39 38 37 41 44 48 51 55 57 54 51 48 48
37 36 36 36 36 36 36 36 36 37 38 41 41 41 44 46 49 49 45 40 38 38 37 37 42 43 45 47 53 56 56 60 62
46 43 40 38 38 37 37 37 39 42 44 44 45 46 47 47 47 46 44 41 41 39 37 36 35 34 34 35 40 44 46 50 54
56 49 45 45 43 42 42 44 46 48 52 47 46 46 47 45 41 38 37 36 36 36 34 34 33 32 33 32 31 30 31 34 42
51 56 53 50 49 50 50 52 54 52 51 50 50 45 40 39 39 38 37 34 32 32 32 32 32 32 31 30 28 27 26 26 27
55 58 59 56 58 59 59 61 55 54 53 53 47 39 37 36 36 34 36 35 33 31 29 28 26 24 22 20 19 18 18 18 18
58 60 63 61 60 63 62 61 59 56 56 48 37 36 36 33 31 30 29 27 25 24 22 21 20 20 20 20 19 19 19 18 18
65 64 68 67 65 64 64 62 61 59 48 40 38 37 34 26 25 24 22 22 22 21 20 19 20 19 19 18 17 17 16 15 15
75 71 71 68 66 65 64 61 60 47 43 42 39 35 28 22 21 21 23 22 22 20 20 19 19 18 18 17 16 15 14 14 14
75 80 71 71 68 64 62 60 45 45 45 42 38 33 28 24 23 24 23 22 21 19 18 18 18 18 17 16 15 15 16 16 16
69 79 80 76 76 69 66 48 48 47 45 42 38 32 27 26 25 25 22 20 20 19 18 18 18 18 18 18 18 18 19 19 19
69 78 82 86 83 79 63 55 55 52 46 42 36 31 27 25 24 23 22 21 20 19 19 19 19 19 20 19 19 18 17 17 16
70 73 81 90 90 77 59 56 55 53 48 42 37 33 29 27 25 23 23 24 21 20 21 21 21 20 20 19 18 17 18 18 18
84 90 92 94 88 70 59 56 57 57 49 44 40 36 33 31 27 26 24 22 23 23 23 22 21 20 19 18 19 19 19 18 18
77 87 91 96 87 76 67 62 56 52 49 44 39 38 34 30 27 26 26 25 27 25 24 23 21 21 21 21 21 20 19 18 17
71 84 87 88 88 79 70 65 56 52 49 45 40 36 32 30 28 28 29 29 28 27 25 25 25 24 23 22 21 20 20 17 20
77 84 85 88 83 72 65 62 57 53 49 44 40 39 36 33 32 32 31 28 26 26 27 27 26 24 24 23 22 23 22 22 21

GFSFLT1_prec_cthk_054.txt.gz
RH
23 23 22 20 18 17 20 18 20 21 18 16 15 19 23 29 36 39 35 34 33 31 30 30 27 25 25 26 27 24 24 24 26
26 26 25 26 26 26 27 27 28 27 27 28 31 33 36 39 40 40 37 37 37 37 38 37 38 39 36 34 31 33 31 28 30
27 28 28 28 27 27 28 28 28 30 31 31 32 32 35 39 44 43 42 41 39 39 40 40 42 45 46 48 49 45 43 45 43
30 29 31 32 33 32 32 32 32 33 33 34 36 39 40 43 46 43 45 40 37 36 35 35 37 40 42 45 50 54 57 59 58
37 36 35 35 35 36 36 36 36 37 39 41 43 44 46 47 46 45 42 42 39 38 35 34 34 34 34 38 42 44 49 52 55
42 42 44 42 40 39 38 37 39 42 44 45 45 46 45 45 43 42 39 35 33 35 34 34 32 32 31 31 31 32 35 40 43
47 47 48 50 48 46 45 46 47 49 48 47 47 47 44 40 36 35 35 34 33 31 31 31 31 32 32 31 32 32 31 30 30
46 46 48 51 53 53 52 54 53 52 52 51 49 46 40 37 35 34 33 32 32 33 32 31 29 28 27 25 23 22 21 20 20
47 48 51 52 57 59 58 58 56 55 54 53 50 41 37 36 33 32 31 28 27 26 25 24 22 21 20 19 19 18 18 18 18
52 55 55 56 59 64 64 62 61 60 58 55 43 39 38 35 31 29 23 22 22 21 20 20 20 20 19 19 18 17 16 15 15
57 59 61 63 61 65 67 66 63 61 57 44 42 40 38 34 29 26 21 20 20 21 21 22 21 19 19 18 17 16 15 14 14
62 62 63 71 72 65 67 66 62 60 46 43 42 40 38 34 31 28 24 23 23 23 22 20 19 18 17 17 16 15 15 15 15
62 65 63 64 76 76 66 65 62 48 46 46 43 40 36 33 30 27 25 24 24 23 21 19 18 18 17 17 17 17 17 18 18
64 62 60 61 63 73 76 74 56 52 50 49 45 41 38 34 31 28 26 25 24 23 21 20 19 18 18 18 18 19 19 19 18
61 62 60 61 66 71 80 75 64 56 54 50 47 45 40 36 32 30 28 26 25 23 22 21 20 20 20 20 20 20 19 18 17
61 63 63 66 74 78 75 73 67 60 57 52 50 48 46 39 36 32 30 28 26 24 23 22 22 21 21 21 20 19 19 19 19
70 71 74 76 84 87 81 81 66 65 62 56 51 45 42 41 38 33 32 30 27 25 25 25 24 22 21 20 20 21 21 21 20
68 73 78 81 84 84 81 79 74 70 64 60 56 47 43 40 37 35 34 31 29 29 28 26 24 23 22 21 22 22 21 20 23
68 73 76 79 83 79 76 80 75 70 69 64 57 49 42 39 37 38 35 33 32 30 29 27 25 24 24 24 24 23 21 22 25
69 74 79 82 84 81 76 76 66 63 61 58 50 45 42 40 41 39 36 34 32 29 28 27 27 26 27 26 25 25 26 26 24

GFSFLT1_prec_cthk_057.txt.gz
RH
22 22 22 22 23 25 22 23 24 23 18 15 17 22 29 31 35 36 35 35 33 32 32 30 31 30 30 29 29 29 27 23 24
24 24 23 23 24 28 28 27 27 27 27 29 32 34 37 38 41 39 38 37 37 39 41 40 42 46 47 46 42 36 35 38 35
25 25 24 25 25 25 25 26 27 29 30 31 32 34 38 40 42 41 43 40 39 39 38 38 39 40 43 46 50 55 55 52 52
29 30 29 28 29 30 31 32 32 33 34 35 38 40 43 44 45 45 44 42 40 38 36 35 33 34 37 38 41 44 49 52 55
34 36 36 35 33 33 33 34 34 36 38 39 41 44 45 44 43 43 42 41 38 36 35 34 34 34 32 30 30 33 37 41 46
37 39 41 41 41 42 41 41 41 43 44 44 46 45 44 43 43 40 37 36 36 34 33 32 31 31 32 32 32 31 32 31 31
36 38 41 44 46 47 49 48 49 50 49 49 48 48 45 41 38 36 36 34 33 33 32 33 33 32 30 28 27 27 26 26 26
42 40 41 42 45 48 51 54 55 53 52 51 51 50 44 38 38 37 35 32 31 30 27 27 27 26 24 23 21 20 19 19 18
45 44 44 45 47 49 53 57 60 60 59 57 55 47 41 39 38 35 32 29 27 24 21 22 22 21 21 21 21 20 18 17 16
47 47 48 50 52 52 53 56 59 63 62 59 51 44 42 41 38 34 31 28 26 23 19 20 20 21 22 21 19 18 17 16 16
49 51 54 52 54 60 64 65 61 60 62 56 46 43 40 38 36 34 32 30 28 24 21 22 22 22 21 19 18 17 17 15 14
52 55 56 56 58 59 59 62 69 66 57 51 47 44 42 38 36 33 31 30 28 25 24 23 22 21 19 18 18 18 17 16 16
55 57 58 59 58 57 56 58 65 65 56 54 51 47 44 39 36 34 32 31 29 27 25 23 23 22 20 19 19 18 18 17 17
58 62 65 64 61 60 59 56 58 51 58 59 55 50 46 42 40 39 37 34 32 29 28 27 25 23 21 21 20 20 19 19 18
58 60 62 63 60 61 63 66 65 64 65 62 58 55 50 47 45 44 43 38 33 30 30 28 27 24 23 22 21 21 20 19 19
61 63 64 68 71 69 74 77 75 71 69 68 60 57 57 52 47 43 40 38 36 32 29 28 27 26 24 23 23 22 20 20 21
61 65 70 72 70 75 80 80 76 69 69 68 73 67 61 57 54 49 43 39 37 33 31 30 28 26 25 24 22 22 22 22 26
61 65 69 70 72 78 81 78 75 70 67 71 67 64 63 58 54 52 47 42 38 35 33 31 29 28 26 25 24 24 24 24 27
62 65 67 70 74 78 81 79 77 75 71 74 65 60 55 49 45 43 41 41 41 36 33 31 29 27 26 26 25 25 24 25 27
66 64 68 70 75 81 83 82 78 79 82 73 66 60 51 47 45 45 45 45 38 34 33 30 28 26 25 26 25 25 27 27 27

GFSFLT1_prec_cthk_060.txt.gz
RH
21 21 22 25 30 30 30 31 27 25 21 16 20 25 29 31 33 34 35 35 34 34 37 35 35 36 36 34 32 32 33 27 27
22 21 22 23 25 28 27 30 32 28 26 28 32 36 36 35 36 37 37 38 39 42 41 40 40 46 47 51 52 52 47 43 47
25 24 24 24 25 26 26 25 25 27 29 31 32 36 38 38 38 39 41 42 41 39 37 37 38 39 40 43 48 52 54 56 55
30 29 28 28 27 27 28 29 32 32 34 36 37 40 42 42 42 44 42 41 41 38 37 37 37 36 36 38 38 41 44 47 51
33 34 34 36 36 35 34 33 34 35 38 39 41 43 44 44 44 43 42 41 38 34 37 37 35 35 32 31 33 33 32 33 37
32 34 37 39 41 42 42 42 43 44 45 45 46 46 45 45 42 40 39 38 37 35 34 34 34 34 34 33 32 31 31 31 31
36 35 35 36 40 43 45 47 48 50 49 48 48 49 48 43 40 39 38 38 37 37 32 32 31 30 29 28 27 25 24 24 23
42 39 38 39 40 42 43 47 52 53 55 54 54 53 47 42 40 40 38 36 36 33 29 27 26 23 23 23 22 21 21 20 19
47 43 43 43 44 46 48 50 52 54 57 58 58 56 48 45 43 41 39 36 34 30 29 27 25 20 20 22 21 21 21 19 17
49 48 48 47 47 51 53 56 58 59 61 60 59 53 48 45 42 38 35 33 32 31 30 28 26 23 20 20 21 21 20 18 17
50 51 51 52 52 55 57 58 59 59 61 65 61 51 50 46 41 39 35 34 32 30 29 29 27 25 22 21 21 20 19 18 17
49 49 51 51 53 57 59 59 56 54 55 63 57 55 53 50 45 42 38 36 33 31 30 29 28 26 23 22 22 21 20 19 19
50 50 53 56 60 63 64 62 60 56 52 47 48 49 54 54 50 45 42 40 40 36 34 33 31 28 26 25 24 24 23 21 20
53 55 57 58 59 61 63 62 62 63 54 57 61 60 57 55 53 51 47 46 43 41 40 36 33 30 29 29 28 26 23 22 21
55 57 58 59 59 62 64 70 69 70 66 68 68 65 61 59 57 52 53 50 47 43 40 37 35 33 29 27 26 25 24 23 22
55 56 58 60 63 69 73 74 75 73 72 70 66 63 65 60 62 68 62 56 53 49 45 40 36 33 29 27 27 26 24 24 22
59 58 60 63 65 69 72 74 77 74 73 69 65 64 66 67 66 62 60 58 53 51 50 45 38 33 30 29 27 26 25 24 25
66 63 61 66 69 69 72 72 76 77 73 73 71 69 70 70 66 59 55 51 48 45 43 39 37 34 31 29 28 26 25 25 28
69 71 71 73 75 70 73 75 78 78 75 73 80 72 72 65 58 57 49 47 46 46 44 42 36 32 31 30 28 26 25 26 30
72 74 76 77 74 71 71 76 79 78 76 74 76 67 60 53 52 51 51 52 51 47 44 41 36 32 30 28 25 25 25 23 29

GFSFLT1_prec_cthk_063.txt.gz
RH
21 22 29 29 29 31 32 33 32 30 23 19 24 28 30 32 32 34 35 36 37 39 38 39 39 43 47 45 42 37 36 33 32
23 22 23 27 29 31 32 33 33 31 26 30 35 35 34 35 36 36 36 38 42 42 41 40 42 44 47 55 56 57 54 51 53
28 26 25 25 26 29 28 28 29 27 29 33 34 36 37 38 38 37 36 41 39 37 35 35 40 40 40 42 45 46 49 52 54
31 31 30 30 31 32 29 29 30 32 33 35 36 39 40 41 41 41 40 39 37 35 35 38 38 38 35 34 34 34 40 46 47
31 32 33 34 35 36 37 38 38 38 39 42 43 45 46 45 44 42 41 40 37 38 38 36 35 35 33 33 33 32 30 31 33
35 33 33 34 37 40 42 43 44 46 47 48 49 49 48 47 44 42 40 39 38 37 36 35 34 32 32 31 31 32 31 30 30
39 40 36 36 37 38 41 44 48 51 53 54 56 55 52 48 44 42 41 40 42 36 34 33 31 29 27 25 22 23 24 23 22
42 43 43 40 40 41 44 47 51 53 54 56 58 59 59 52 46 44 42 41 41 37 34 33 30 27 26 24 20 19 21 21 20
43 45 46 45 44 45 47 50 53 54 55 56 60 61 57 50 48 45 42 40 38 36 34 32 30 28 28 26 23 19 19 19 20
44 48 49 50 49 49 51 54 56 57 57 57 57 60 54 51 49 46 43 40 37 35 34 32 30 29 28 27 25 21 20 20 20
48 50 51 51 51 53 54 55 58 58 55 55 54 52 48 54 52 49 45 42 40 37 36 33 31 29 28 27 26 24 22 21 20
51 53 53 51 53 54 57 61 64 62 58 57 54 44 45 46 44 46 49 47 44 40 38 37 36 34 32 31 29 28 26 24 23
51 54 54 56 57 58 60 63 64 62 61 62 53 54 54 55 55 52 50 47 47 46 44 42 40 39 38 35 32 31 30 29 28
50 54 54 58 60 61 61 61 62 64 67 60 58 62 62 60 56 55 54 55 52 50 48 47 44 41 39 37 35 34 31 28 26
50 53 54 57 61 62 61 61 66 70 69 63 65 65 61 58 55 56 57 59 61 63 62 55 49 48 46 41 36 33 30 26 25
58 55 55 59 60 62 62 64 67 70 72 64 63 61 62 60 58 60 60 58 61 58 55 51 49 45 44 45 40 34 28 27 28
57 62 59 60 64 64 64 67 69 71 71 66 68 64 63 64 64 65 66 66 60 57 54 49 47 43 40 38 35 31 30 28 27
72 73 71 69 68 70 71 76 77 76 75 72 71 65 64 68 66 65 61 57 53 51 51 45 44 42 39 37 35 31 30 28 30
74 79 78 77 76 78 82 85 83 80 76 75 74 69 68 68 66 61 53 51 52 51 50 51 49 46 43 40 36 33 30 28 28
68 73 79 82 83 87 88 88 88 83 78 75 73 66 70 70 64 60 56 56 57 56 55 51 45 43 42 38 35 32 29 26 26

GFSFLT1_prec_cthk_066.txt.gz
RH
23 31 30 31 29 35 39 37 33 31 26 26 30 33 33 33 34 34 36 40 42 46 47 44 46 47 47 47 47 46 45 43 46
25 25 31 30 29 30 32 32 32 30 25 29 33 34 36 37 37 37 39 42 43 44 39 40 42 43 48 52 51 54 56 55 56
28 28 29 30 31 32 32 33 33 28 30 34 37 38 40 41 40 39 40 44 40 38 37 37 39 38 38 40 43 44 48 50 52
28 29 31 31 32 34 33 32 31 32 34 37 39 42 44 44 44 43 41 39 38 38 40 40 38 36 34 32 33 34 36 38 42
31 30 30 32 34 35 36 38 41 42 42 44 46 49 49 49 47 44 43 41 41 38 37 37 36 34 33 33 33 33 33 33 33
34 34 34 32 33 34 37 40 43 45 48 50 52 53 54 52 48 44 42 41 42 38 36 34 32 31 31 30 28 27 26 25 28
38 38 39 39 37 37 39 41 45 47 50 53 55 56 56 55 50 47 45 46 43 37 36 34 33 32 31 28 25 24 23 19 20
39 40 42 44 44 42 42 44 48 51 52 52 52 53 56 53 49 46 45 47 44 38 35 34 34 32 30 28 27 26 24 22 18
43 42 43 46 47 47 47 48 50 53 54 54 54 54 53 47 43 44 43 42 42 40 36 34 33 31 30 29 28 26 25 23 21
44 45 45 48 50 51 50 52 54 56 56 56 53 52 50 40 40 42 43 43 42 40 38 37 34 33 32 30 28 26 25 24 23
43 45 46 50 51 51 51 54 56 58 61 60 56 55 49 42 39 39 38 37 37 42 43 39 37 36 35 34 33 31 29 28 27
44 44 48 51 53 53 55 58 61 64 64 62 60 59 50 49 48 47 47 47 46 44 44 43 42 42 40 40 39 39 37 34 32
44 48 52 51 52 54 57 60 63 63 62 62 63 56 53 56 55 53 49 47 48 48 49 51 50 48 46 44 43 40 38 37 35
44 48 52 52 53 56 58 60 61 61 61 65 64 55 59 59 56 53 50 49 52 52 54 53 51 54 54 50 48 45 43 38 35
47 49 52 52 52 55 58 60 61 60 62 65 64 57 57 56 55 54 55 55 56 54 52 53 54 52 48 45 43 41 38 39 39
57 55 56 59 59 56 60 62 61 62 65 67 67 62 59 60 60 59 59 59 58 56 55 54 54 51 48 46 43 41 38 34 32
63 65 65 65 63 62 65 68 68 69 70 69 72 67 66 65 63 60 62 61 59 55 51 49 47 45 45 44 42 41 39 36 33
74 71 69 70 71 72 75 77 79 80 84 84 78 74 69 66 62 62 62 63 60 54 51 49 50 50 50 48 44 41 40 38 36
74 74 75 76 77 78 80 82 87 91 94 94 88 80 80 67 60 62 64 62 59 57 54 53 53 52 51 48 44 41 40 37 34
64 69 75 76 77 80 82 83 87 90 93 96 94 91 80 72 62 59 66 63 60 58 55 54 55 53 52 48 45 42 39 36 33

GFSFLT1_prec_cthk_069.txt.gz
RH
28 33 31 29 28 36 41 40 34 28 23 27 31 32 32 32 33 35 41 43 50 51 46 49 48 48 50 51 53 50 51 49 53
32 35 33 31 32 35 37 33 31 28 24 29 31 33 35 35 35 37 40 43 46 42 38 44 43 45 49 49 51 53 54 52 52
25 31 34 33 32 33 33 32 32 28 30 34 36 37 38 38 38 38 40 41 37 36 39 36 36 37 40 40 41 42 45 48 49
26 26 32 33 34 35 35 36 34 34 35 38 40 42 42 43 42 40 39 39 38 38 37 37 35 34 33 32 32 32 32 33 35
30 29 30 30 33 34 36 37 39 40 43 45 46 48 48 47 45 44 41 40 40 38 37 35 34 33 32 32 32 32 31 30 30
33 32 33 33 32 33 34 36 38 41 44 47 50 53 53 52 49 45 43 44 41 38 36 35 34 32 30 29 29 27 26 23 23
34 35 34 35 36 35 37 38 40 43 46 48 50 50 50 50 48 46 44 46 41 39 37 36 34 33 32 30 29 28 26 25 23
38 37 37 37 38 39 41 41 44 46 47 48 48 49 50 48 43 41 41 43 40 37 35 36 36 34 33 31 30 28 27 25 25
39 41 41 40 42 42 43 45 47 50 51 51 52 51 49 47 38 35 36 37 39 38 37 35 35 34 34 32 30 28 27 26 25
38 40 42 43 44 45 46 47 49 51 53 53 54 53 53 48 41 39 36 35 36 34 33 35 39 39 36 34 32 32 31 29 28
37 40 42 44 44 45 47 48 49 52 54 58 57 57 56 48 45 44 43 42 42 42 42 42 42 43 43 42 40 39 39 38 36
37 40 43 44 44 48 49 49 49 53 57 58 57 57 56 46 48 49 48 47 47 43 44 44 46 48 50 49 47 47 44 42 40
42 41 44 45 46 48 48 50 52 55 58 57 53 54 51 48 51 51 48 46 44 44 47 47 46 49 49 49 51 53 51 49 46
46 44 46 48 49 48 50 52 54 56 59 57 54 56 50 50 54 49 47 47 48 48 52 51 49 48 47 50 50 48 45 43 40
53 50 48 50 52 51 52 55 57 58 60 60 58 59 53 53 54 51 52 51 51 51 51 51 49 48 48 47 47 46 43 41 38
60 57 54 54 55 56 57 60 61 64 65 65 66 65 62 59 59 59 57 55 54 53 54 51 49 47 45 44 42 41 40 41 40
66 65 62 60 62 65 66 66 69 73 73 72 76 72 70 71 68 66 64 58 57 55 57 54 50 47 47 46 46 45 44 43 40
66 68 67 65 67 68 70 70 72 77 80 81 84 83 80 80 76 71 68 61 60 58 58 56 53 52 50 49 49 48 47 44 41
56 68 69 69 70 70 72 75 77 81 85 88 90 91 87 85 86 82 74 68 62 63 61 58 56 55 52 49 50 51 49 46 43
50 56 60 66 70 74 76 81 82 85 86 87 89 90 87 90 91 85 82 74 69 65 58 60 60 60 56 53 51 50 49 46 43

GFSFLT1_prec_cthk_072.txt.gz
RH
27 30 29 28 32 40 41 35 31 24 25 29 31 30 31 32 36 37 40 45 49 51 47 48 46 49 51 51 51 51 56 56 57
32 33 31 28 33 38 37 35 29 25 28 30 32 33 34 37 39 41 43 44 45 44 38 43 44 46 48 50 52 52 52 52 53
30 33 32 32 34 36 35 32 30 26 30 33 35 37 37 40 40 41 43 40 41 38 36 36 37 40 41 43 44 44 45 46 46
25 31 32 32 34 35 35 34 34 33 37 40 41 42 42 45 43 43 47 39 41 40 38 35 34 35 34 34 34 34 34 34 34
27 30 32 30 32 33 34 35 33 36 39 42 45 47 48 50 46 45 43 41 40 38 37 35 33 33 32 31 31 30 30 30 31
29 32 33 32 33 32 31 32 34 37 41 43 46 49 50 51 50 49 44 43 41 37 35 34 34 33 32 31 30 29 28 26 26
34 32 33 33 34 35 33 34 36 39 42 42 44 46 46 45 43 43 41 40 39 35 34 33 33 32 32 32 31 30 29 28 27
33 35 35 36 36 35 37 38 40 43 44 45 46 45 45 45 42 37 36 37 36 34 32 32 33 33 33 32 31 30 29 28 27
38 40 43 43 39 45 45 46 45 44 46 47 48 47 47 46 40 38 35 34 34 32 32 35 34 33 35 34 34 33 31 30 30
34 38 40 43 46 46 47 48 45 46 46 48 49 49 50 51 43 44 40 39 38 38 38 37 37 37 38 39 39 40 38 35 35
32 34 38 41 43 45 46 48 46 46 47 49 52 53 51 51 42 45 41 41 42 41 41 40 40 41 41 43 44 44 44 44 42
32 34 37 40 42 43 43 46 46 47 47 51 54 52 50 49 41 43 49 43 43 42 40 39 41 42 42 43 46 46 47 48 46
34 36 39 42 44 43 42 44 45 48 50 52 55 54 51 47 43 45 46 44 43 42 43 44 44 46 45 44 45 46 47 48 47
41 43 46 47 47 46 44 46 46 49 52 55 57 54 52 48 44 47 48 45 44 45 47 46 46 46 44 44 45 45 44 43 43
49 50 51 52 53 52 49 48 48 50 54 58 61 60 58 58 51 51 53 52 51 50 49 49 49 49 46 43 43 43 42 40 38
57 56 55 56 57 58 56 54 54 55 61 64 66 64 63 64 63 62 62 63 60 57 54 52 51 51 48 45 44 43 43 42 42
58 58 59 58 60 65 63 61 61 62 66 69 68 68 67 69 70 72 74 72 69 65 59 57 56 54 51 48 47 47 46 44 44
53 56 60 60 61 64 67 66 65 65 69 71 72 74 73 72 75 76 75 74 76 74 69 63 61 58 55 52 49 50 48 46 45
43 49 57 65 70 71 68 68 69 69 69 73 76 79 79 78 77 78 78 79 81 83 76 76 69 65 60 55 52 52 51 48 46
41 44 54 59 59 69 74 74 72 70 73 74 78 81 84 86 84 81 82 81 82 83 82 78 76 76 65 62 59 57 55 53 53

GFSFLT1_prec_cthk_075.txt.gz
RH
28 29 27 25 37 38 37 31 26 22 25 28 28 29 32 38 39 41 45 49 49 49 47 44 46 48 47 48 53 55 53 55 57
31 29 27 27 36 37 35 32 26 23 27 28 30 32 35 42 43 43 43 46 48 44 39 40 42 43 43 47 50 51 52 52 53
31 30 27 28 35 35 34 31 27 25 29 31 33 35 37 44 45 44 40 42 41 38 35 35 36 37 40 41 42 42 43 44 45
31 31 28 31 33 34 33 31 30 29 34 36 38 39 40 46 43 47 42 38 37 35 33 33 34 34 34 34 34 34 34 34 34
27 32 32 31 31 32 32 32 30 31 35 38 41 42 44 47 45 46 40 40 38 35 32 30 30 31 31 30 29 30 29 29 29
28 34 34 31 31 30 30 30 30 33 36 39 42 43 46 47 45 44 37 37 36 33 31 30 30 31 31 30 30 30 30 29 29
33 30 31 33 31 32 31 31 32 35 39 40 41 43 45 44 42 41 34 33 33 31 30 30 29 29 29 30 30 30 29 28 28
32 31 32 33 32 33 33 34 35 40 44 45 45 46 47 45 44 40 33 32 32 29 29 30 30 31 32 31 30 30 30 30 29
34 36 35 37 35 38 36 38 42 44 45 46 48 49 47 46 46 43 37 36 35 34 31 31 31 31 31 31 32 33 35 35 34
36 39 39 41 41 43 43 45 47 45 44 45 46 48 48 48 47 42 39 37 36 36 36 36 35 34 34 35 35 36 38 40 41
37 40 40 39 42 44 45 46 46 45 45 45 45 48 50 49 48 43 39 39 40 39 36 35 35 35 35 37 37 37 40 41 42
39 38 38 39 41 45 47 48 45 44 45 45 45 48 50 50 49 42 43 42 40 39 36 35 37 37 40 41 40 40 41 42 44
41 37 38 38 41 46 49 50 48 44 43 44 46 50 53 52 49 41 43 44 42 41 39 38 41 41 41 42 41 41 41 43 44
48 44 41 41 43 47 50 53 50 47 46 46 46 52 56 57 54 47 48 51 50 49 49 48 45 44 44 44 43 41 41 41 42
52 51 48 47 48 50 52 55 54 53 50 49 49 55 59 59 59 54 52 54 58 58 57 57 53 50 48 46 45 43 42 41 41
55 55 54 55 55 56 55 57 60 59 59 56 56 59 63 64 62 63 60 59 62 66 64 63 63 58 55 52 48 47 46 44 43
51 51 57 61 63 62 61 61 61 63 64 62 63 64 64 67 67 67 68 68 69 70 70 67 68 69 65 59 54 52 52 50 48
44 47 54 62 67 66 65 63 60 62 67 69 69 68 67 67 68 72 73 72 71 72 73 71 70 72 72 70 67 60 58 54 54
40 44 47 52 57 59 64 67 68 69 70 75 73 71 69 70 69 72 75 76 75 74 74 76 74 74 74 75 69 71 71 63 60
40 43 47 48 55 57 59 63 70 76 78 78 80 77 74 74 75 72 77 79 81 81 80 77 78 78 74 73 71 74 71 69 66

GFSFLT1_prec_cthk_078.txt.gz
RH
27 26 23 31 36 36 32 26 20 22 24 24 26 30 32 37 38 40 46 47 49 45 42 42 43 40 44 48 49 47 48 50 53
30 28 24 32 35 35 32 26 21 24 25 27 29 34 40 41 41 42 44 45 43 38 33 34 37 38 37 41 43 45 46 46 48
27 26 24 31 33 32 31 28 24 26 28 30 33 36 39 42 40 38 40 41 38 32 32 32 32 33 35 36 36 35 36 37 37
30 27 23 27 32 31 31 29 27 29 32 34 35 38 40 43 43 41 37 36 34 31 31 31 30 30 30 31 32 32 32 32 32
30 30 30 29 29 29 28 28 27 28 32 35 37 39 41 39 40 40 37 35 33 30 29 28 27 27 28 28 28 28 27 27 27
28 31 32 30 29 29 28 28 27 30 33 36 37 38 40 42 39 38 32 30 30 28 27 27 27 27 27 26 26 26 26 26 27
27 28 28 30 30 30 29 29 29 31 34 36 37 39 41 41 39 37 33 28 27 27 26 25 26 27 27 28 29 29 26 26 27
30 28 28 31 31 31 31 31 32 34 37 39 40 42 44 42 40 39 35 32 31 30 28 27 26 27 27 27 28 28 30 30 30
33 28 29 30 31 32 33 33 35 37 41 41 42 43 45 42 40 42 39 33 33 32 31 30 30 30 29 29 29 30 32 32 34
34 33 30 31 32 32 35 37 39 42 41 41 42 42 43 44 41 43 39 35 34 34 34 33 31 31 31 31 31 32 33 33 34
36 39 37 34 37 37 38 42 44 46 43 40 42 42 44 45 44 43 41 35 36 36 35 34 32 32 34 35 35 35 36 37 37
37 39 39 39 37 38 39 42 47 49 48 44 41 42 44 46 48 45 44 37 39 40 38 36 36 38 38 39 39 38 38 39 38
40 39 39 39 38 37 39 42 48 50 51 49 44 43 44 46 50 51 47 43 44 47 46 44 45 47 46 44 43 42 40 40 40
40 41 42 44 44 42 40 42 47 51 52 53 51 47 47 48 50 54 52 47 47 50 51 53 54 54 54 52 49 46 45 43 41
40 41 43 47 50 49 46 46 49 52 53 55 56 56 53 52 55 58 58 52 50 54 57 58 59 61 59 58 59 55 51 49 46
39 40 42 47 50 52 52 53 56 56 57 58 58 60 61 60 60 63 63 62 58 56 60 62 62 63 64 62 65 67 66 58 55
36 38 41 45 47 51 52 56 61 64 64 62 63 59 60 66 67 66 67 67 67 66 65 66 66 65 65 65 68 67 67 65 66
40 38 40 44 45 49 53 55 59 64 69 66 66 65 65 68 71 71 72 72 70 72 71 68 67 69 70 71 70 69 71 71 71
39 49 49 46 51 50 56 57 58 62 66 71 68 69 71 72 74 76 76 75 71 73 76 75 74 73 70 73 75 74 72 73 71
36 42 46 49 50 53 59 65 69 68 66 68 71 74 78 84 82 82 83 81 79 80 84 83 82 81 79 75 78 80 76 77 77

GFSFLT1_prec_cthk_081.txt.gz
RH
24 22 28 36 34 29 22 17 19 21 23 26 29 29 31 35 38 42 46 48 45 39 38 39 39 40 43 45 44 44 45 47 50
24 21 28 33 31 31 24 19 22 23 25 30 31 31 34 37 37 40 41 42 39 35 31 32 33 34 34 37 39 40 39 40 41
25 21 25 29 30 28 26 22 24 27 29 33 35 36 36 37 35 36 38 37 31 27 28 28 29 30 31 30 29 29 31 31 32
24 22 23 27 27 26 26 25 25 28 30 32 36 38 38 36 37 36 32 31 28 27 27 26 26 26 26 27 28 27 27 27 28
24 23 24 27 27 26 24 25 25 29 32 33 36 36 36 36 34 33 30 28 26 26 24 23 23 23 24 24 24 25 25 25 24
22 26 26 27 27 26 27 27 25 28 31 33 34 36 36 36 35 34 31 28 25 24 23 23 22 22 22 23 23 24 25 25 24
25 26 27 27 27 28 28 28 28 30 32 34 36 37 38 40 37 35 33 29 28 27 26 25 24 24 24 25 24 24 25 25 27
29 27 25 26 27 29 30 30 31 32 34 36 37 39 39 40 40 37 36 32 30 29 28 27 27 28 27 26 26 26 26 27 28
31 31 31 28 28 31 31 31 33 35 37 39 40 40 40 40 41 39 38 34 30 31 31 30 29 28 27 28 27 28 28 29 30
36 33 32 33 31 29 31 31 32 36 39 42 43 41 41 40 41 42 41 37 32 32 33 32 31 29 29 29 31 32 32 32 32
37 33 33 34 35 32 31 33 36 37 41 45 46 44 41 40 40 43 43 41 36 35 37 36 34 33 34 36 35 34 35 35 35
36 32 35 36 36 37 37 35 37 41 44 46 47 48 46 43 42 43 45 46 42 41 42 42 40 41 43 44 44 42 39 39 38
37 37 37 38 40 43 43 42 40 40 42 47 49 50 51 49 46 45 45 48 48 44 46 45 44 46 51 54 53 51 49 46 43
34 34 36 39 39 41 45 48 48 46 46 47 50 52 52 53 53 51 51 49 54 49 49 50 51 51 52 55 59 59 57 58 56
33 32 32 35 37 38 43 47 50 50 51 51 52 54 53 54 56 58 58 57 58 58 54 55 55 56 57 58 59 60 62 61 60
36 36 37 38 39 41 44 46 47 49 52 55 57 58 57 57 57 58 61 64 66 68 65 62 62 63 64 64 64 64 63 62 62
38 38 39 40 38 39 42 44 47 49 52 55 58 61 62 64 63 63 64 65 69 74 75 73 72 71 70 69 68 70 69 68 67
44 43 42 46 46 48 49 51 53 56 56 61 64 61 56 58 60 62 65 70 73 76 81 81 79 77 77 77 77 77 78 76 72
46 43 41 45 50 56 52 53 54 58 63 66 70 72 69 67 68 72 73 75 79 84 85 88 87 85 87 89 86 83 87 82 77
41 40 45 50 51 48 51 55 57 59 59 61 69 71 74 77 76 74 76 80 86 89 91 94 92 91 91 86 82 83 89 88 83

GFSFLT1_prec_cthk_084.txt.gz
RH
20 25 36 32 27 19 16 17 19 21 24 26 27 28 29 34 37 39 42 42 36 34 35 35 36 38 40 40 39 40 42 44 47
20 24 29 29 27 22 18 19 20 23 26 27 30 29 32 35 36 38 39 38 35 29 28 29 30 30 31 33 35 35 34 34 36
19 22 26 27 26 24 20 22 24 26 28 30 31 32 33 33 34 35 35 32 27 26 25 25 26 26 27 27 27 28 29 29 29
20 22 25 25 24 23 21 23 25 27 29 31 33 34 33 32 30 29 27 25 24 23 23 22 22 22 22 23 23 24 23 24 24
22 22 25 25 24 23 23 23 25 27 28 30 31 32 31 31 30 29 27 25 23 21 21 20 21 20 21 21 21 22 23 24 24
23 24 25 27 26 25 25 24 26 28 30 31 32 34 34 34 33 32 30 27 25 25 24 23 22 21 22 22 22 22 23 23 23
26 26 27 28 27 27 27 27 28 30 32 34 35 36 36 36 36 34 32 30 29 28 27 26 24 25 25 24 24 24 24 24 24
27 29 30 28 26 28 29 29 30 32 35 37 37 38 37 38 38 37 36 34 31 29 28 28 27 27 25 25 25 24 24 25 25
29 28 28 30 31 29 29 30 31 32 35 38 40 41 39 38 41 41 40 39 34 31 29 30 30 29 27 27 27 27 28 29 29
35 32 30 30 31 32 32 30 31 33 35 38 42 44 44 41 40 42 43 43 39 35 33 34 34 32 31 31 31 32 32 32 33
41 36 34 33 31 32 33 35 33 32 36 38 41 45 47 47 45 43 44 44 43 40 39 39 39 38 38 39 40 40 41 41 38
38 37 33 31 32 33 34 36 38 38 38 39 39 42 46 49 51 50 48 48 47 44 41 43 44 42 43 45 47 50 51 48 48
38 37 35 35 35 36 38 39 41 45 46 46 46 44 45 48 51 53 54 54 53 51 46 46 47 49 49 50 52 52 54 56 53
35 34 34 33 32 32 35 38 40 43 48 51 52 50 49 49 52 54 55 57 61 61 58 51 52 54 55 56 58 59 59 58 57
34 33 33 33 32 33 35 38 41 42 46 50 52 52 52 53 56 58 58 59 62 66 70 69 63 62 63 64 65 66 64 63 63
41 39 38 38 37 36 37 36 37 41 46 49 49 49 49 50 54 59 65 66 67 67 67 71 78 77 73 72 71 72 73 70 67
46 44 43 40 41 42 43 44 44 47 51 55 58 56 55 58 60 60 58 60 64 68 72 74 79 82 83 83 80 79 77 74 71
54 44 43 47 47 48 45 43 47 53 57 55 59 58 60 58 61 68 72 73 73 76 81 82 83 87 91 91 89 86 81 73 80
48 51 49 49 50 47 46 49 51 55 53 56 58 63 66 63 61 65 71 71 76 81 83 86 90 94 94 93 93 94 93 93 92
42 42 43 43 43 46 55 46 47 48 51 54 59 63 67 68 67 64 69 75 81 84 88 89 89 90 91 94 96 92 96 93 94

GFSFLT1_prec_cthk_087.txt.gz
RH
25 33 31 25 17 15 15 16 17 19 21 24 25 27 30 33 36 36 36 34 33 34 33 34 33 36 37 35 35 37 41 42 45
21 29 28 25 18 17 18 19 21 23 25 27 29 30 32 34 36 37 37 34 31 27 28 28 28 27 28 28 29 28 27 29 31
20 26 25 24 22 19 21 22 24 26 28 29 30 31 32 32 32 32 30 26 24 24 23 22 22 22 22 22 22 23 23 23 24
20 24 24 24 22 20 21 22 24 27 29 30 30 30 28 27 27 27 25 24 22 21 20 20 20 20 20 20 20 20 20 21 21
21 24 24 25 23 21 22 24 25 27 28 30 31 31 31 31 31 29 27 26 25 23 22 22 21 21 21 20 21 21 21 21 21
22 25 27 27 25 24 23 25 27 28 31 33 34 33 33 34 33 32 30 28 26 26 26 25 25 24 24 23 23 22 23 23 23
25 26 29 28 26 26 27 26 28 29 31 33 36 37 37 37 36 35 33 31 29 27 28 28 27 27 25 24 24 23 23 23 23
31 29 29 31 30 27 27 28 29 31 32 34 36 39 40 41 39 38 38 36 33 31 30 30 30 29 27 25 25 26 26 26 26
33 32 30 30 31 31 31 30 29 31 33 34 36 40 42 43 43 41 39 40 39 35 34 34 34 32 30 30 30 31 31 31 31
35 35 33 31 32 31 32 33 33 33 32 34 36 38 41 45 46 47 46 44 43 42 38 38 37 37 35 35 37 38 39 39 40
42 41 38 34 33 31 32 33 34 34 37 37 35 36 38 42 46 48 50 52 50 48 45 39 40 40 39 41 43 44 45 48 48
43 45 41 35 34 31 32 33 34 35 36 39 41 42 41 41 43 46 51 54 56 57 57 50 45 44 43 45 49 52 51 50 51
45 42 39 36 34 35 35 34 35 36 37 40 45 49 50 51 49 49 50 53 57 60 62 64 60 55 51 49 52 57 58 56 56
47 46 41 36 34 32 31 32 34 36 39 41 43 46 49 51 51 51 52 56 60 63 65 67 69 66 65 64 63 63 64 64 62
39 37 34 35 33 33 34 35 37 38 39 40 42 45 47 48 48 50 51 54 57 60 66 72 75 76 73 68 70 79 77 73 69
38 37 38 40 40 39 38 37 40 41 44 45 45 47 50 53 55 56 59 63 66 67 68 70 71 74 78 80 78 78 83 86 85
42 41 44 46 47 45 43 46 46 46 44 44 50 53 52 49 53 57 62 65 67 72 76 80 83 84 87 89 88 82 82 84 87
50 52 54 57 54 44 52 53 52 47 47 49 52 55 51 49 51 56 63 64 66 70 72 76 77 82 89 91 92 92 91 94 94
70 67 64 63 57 54 51 53 51 50 53 55 51 53 55 60 61 62 64 68 72 73 76 78 82 85 87 90 93 94 96 94 97
70 70 65 56 51 49 49 48 49 54 52 52 50 51 53 56 60 61 63 66 68 70 77 84 81 84 89 92 91 92 94 98 99

GFSFLT1_prec_cthk_090.txt.gz
RH
30 27 22 16 15 14 15 16 18 19 21 25 27 29 31 34 35 34 35 33 35 31 32 32 33 34 34 34 33 35 36 37 39
27 27 23 17 17 17 18 20 23 23 26 28 30 31 32 34 34 33 32 28 25 24 25 23 23 24 25 24 24 24 24 25 26
26 25 24 20 19 19 20 22 24 26 28 29 30 29 28 29 30 29 25 22 20 20 20 20 20 21 21 21 21 21 21 22 22
24 24 23 22 19 20 21 24 26 27 27 27 27 27 27 28 27 27 26 23 23 22 20 21 21 21 21 20 20 20 20 20 21
24 24 24 22 20 21 23 24 26 28 30 30 30 30 31 31 30 29 27 25 24 25 24 24 24 24 24 23 23 23 23 22 23
24 25 25 24 23 22 24 26 28 30 31 32 33 34 34 34 34 33 31 28 27 25 26 27 26 26 25 24 24 24 24 24 24
26 27 28 27 25 23 24 28 29 30 31 34 34 36 37 39 38 36 36 35 31 29 28 28 28 28 27 25 24 24 26 26 26
30 30 32 29 29 29 28 27 29 31 33 33 35 37 40 42 43 42 40 37 37 34 31 31 31 30 30 29 27 27 28 29 30
32 32 32 33 32 32 31 31 31 33 31 32 35 37 39 42 44 47 47 46 44 41 37 35 35 33 32 32 32 33 34 35 36
37 36 36 36 34 33 32 32 32 32 33 35 36 35 37 37 40 44 47 50 52 51 49 43 40 38 36 35 36 39 39 40 43
39 38 38 39 37 35 34 33 33 33 34 34 36 38 40 41 41 41 44 47 51 55 57 57 52 48 45 41 40 42 45 46 47
42 44 43 42 38 35 33 31 32 33 33 34 34 36 39 44 47 50 50 50 51 53 56 60 64 61 58 55 50 48 49 48 50
46 46 46 46 37 36 34 32 32 32 32 33 34 36 39 42 44 46 48 49 50 51 53 57 61 66 67 63 63 61 58 58 59
43 43 43 44 41 37 35 32 31 33 35 36 37 39 40 42 45 47 49 50 51 52 53 55 61 66 70 71 72 72 71 68 65
44 45 45 42 37 34 33 35 37 36 37 39 39 40 41 43 46 51 54 56 57 57 61 62 64 66 69 73 76 78 79 78 76
41 40 39 38 37 39 42 43 44 41 46 46 45 40 39 43 50 54 54 55 59 61 66 66 66 69 73 76 78 81 84 84 90
42 41 42 41 42 44 47 52 49 48 52 51 47 43 46 48 48 50 50 51 53 61 67 66 68 71 73 74 77 82 86 89 86
49 48 48 49 51 54 57 58 54 56 56 54 52 51 48 48 47 49 51 58 62 65 68 70 70 71 72 75 77 80 83 82 84
66 67 68 68 68 68 69 68 66 62 57 54 54 56 53 54 48 43 43 50 54 60 64 68 69 71 77 75 77 75 77 78 90
74 75 74 78 77 78 78 71 69 67 62 54 52 52 49 47 48 50 53 66 67 68 65 69 71 68 70 68 70 67 70 77 80

GFSFLT1_prec_cthk_093.txt.gz
RH
26 19 15 15 15 14 15 16 18 20 24 26 28 32 32 32 31 31 31 31 30 28 27 25 25 25 28 28 29 29 28 30 33
26 21 16 16 16 17 19 21 23 24 27 28 29 31 30 30 29 27 23 20 20 20 20 20 19 20 20 20 20 20 21 21 21
26 23 18 18 18 19 20 23 25 26 27 27 27 27 28 28 28 26 23 22 20 19 18 19 19 19 19 19 19 19 19 19 19
25 24 20 18 18 19 22 24 25 25 26 27 27 27 27 28 27 26 25 24 23 22 22 22 22 22 22 21 21 21 21 21 21
25 24 21 18 19 20 22 24 25 27 28 29 29 30 30 31 30 29 28 26 24 24 25 25 25 24 23 22 21 21 21 22 22
26 24 23 21 20 22 24 25 27 29 30 32 32 33 34 35 34 34 34 32 29 27 26 26 26 26 24 23 23 23 23 24 24
30 28 27 25 22 22 24 27 29 30 31 32 33 35 36 38 38 39 38 37 35 31 29 29 28 28 26 25 26 26 26 27 27
33 34 33 29 25 24 24 26 27 30 32 33 34 34 35 37 40 42 43 44 43 41 36 33 32 30 29 28 29 30 31 31 32
35 35 35 33 31 28 28 28 28 31 33 34 33 34 35 36 37 39 41 44 46 47 47 43 40 37 34 32 32 33 35 35 36
38 37 36 35 34 32 30 30 30 31 33 34 35 36 37 38 40 41 41 42 44 47 50 51 50 46 45 42 40 41 41 40 40
40 39 39 38 37 36 33 32 30 31 31 32 34 35 36 37 39 41 44 46 47 48 48 50 51 52 48 47 46 44 45 47 49
40 39 40 40 39 38 35 33 32 31 30 30 31 33 35 36 39 41 42 43 44 44 44 45 48 51 53 54 53 54 53 52 52
43 41 43 44 42 39 35 33 31 30 31 31 31 32 35 39 41 43 44 46 47 48 50 50 50 53 56 58 60 61 58 58 59
48 44 44 43 41 38 38 35 33 31 32 34 34 36 38 38 39 43 45 49 52 53 53 52 52 53 57 60 61 65 68 71 72
48 45 43 43 42 43 38 32 33 35 39 38 38 42 42 40 39 42 46 51 54 54 54 56 56 58 61 60 63 67 68 70 75
47 46 46 45 42 39 37 37 39 42 46 43 44 45 43 41 41 48 49 48 50 50 51 52 57 61 62 64 64 66 65 66 68
48 46 44 42 42 41 42 43 45 48 51 52 51 49 47 43 45 47 49 50 53 54 54 58 62 64 65 63 63 64 65 69 68
52 51 49 48 48 48 49 52 58 63 65 65 63 61 54 47 47 48 46 46 46 46 50 55 58 61 62 63 63 66 67 68 71
62 60 62 63 62 64 69 74 79 83 82 75 72 68 60 54 50 47 41 42 46 53 64 67 66 64 65 63 67 63 63 66 66
78 75 79 79 80 82 83 84 83 85 84 81 72 60 54 50 52 46 55 45 51 64 65 62 64 59 58 57 61 58 62 62 63

GFSFLT1_prec_cthk_096.txt.gz
RH
16 15 15 14 14 14 15 16 21 25 25 28 29 30 30 31 32 30 31 30 25 24 21 21 21 22 23 24 24 24 22 23 24
17 16 15 16 16 18 20 22 23 25 27 29 29 28 27 29 27 26 27 19 18 18 17 17 17 17 17 18 18 18 18 18 18
20 17 18 18 19 20 22 24 25 25 25 26 26 27 27 29 28 27 23 20 19 18 18 19 19 19 19 19 18 18 18 18 18
24 19 19 19 20 22 24 24 24 24 26 26 26 26 26 29 28 30 28 22 22 21 21 22 22 22 21 20 19 19 19 19 20
25 21 20 21 21 22 23 25 25 26 27 27 27 28 29 32 32 33 27 26 23 23 23 24 23 23 22 21 20 20 20 20 21
26 25 22 22 22 23 25 26 28 29 30 29 30 32 35 36 36 36 33 32 29 27 27 26 25 25 24 23 23 23 23 24 24
30 26 25 22 23 25 26 27 29 31 31 30 31 35 36 37 38 38 37 37 36 33 32 32 31 30 28 27 27 26 27 28 29
35 35 30 26 24 25 26 27 28 29 31 31 32 34 35 37 37 36 38 39 40 40 40 37 36 36 34 33 32 33 34 33 33
41 38 39 37 31 32 29 30 29 29 30 32 33 33 35 37 38 39 39 39 40 42 44 45 44 40 39 36 34 35 37 37 37
41 44 41 41 38 38 35 32 30 29 31 32 32 33 35 36 37 39 39 39 40 41 42 43 45 46 42 41 40 39 41 43 44
40 40 41 42 41 41 38 37 33 31 29 29 30 31 32 34 36 37 39 38 39 40 41 41 42 45 48 48 46 45 46 46 47
43 41 40 40 42 42 38 37 34 32 29 28 30 31 33 35 37 39 40 41 41 42 42 44 44 44 44 47 51 54 53 53 54
45 43 41 40 41 41 40 39 36 33 30 29 29 29 32 36 38 40 40 41 42 44 45 46 45 44 45 47 51 55 57 59 62
52 47 43 44 44 43 40 39 37 33 31 28 32 33 35 39 41 40 40 44 46 47 48 48 48 47 48 50 56 59 60 62 64
62 60 49 46 44 43 39 39 39 33 32 34 39 40 39 43 42 43 44 46 50 50 51 50 49 49 49 51 55 60 61 60 63
67 62 55 48 44 43 44 41 37 36 37 40 45 44 46 48 47 46 45 47 50 50 51 50 51 50 52 57 59 59 61 61 59
70 63 56 51 48 46 43 41 40 42 44 47 52 56 59 57 59 56 48 48 48 48 48 46 48 51 54 58 59 60 59 62 62
76 65 58 52 49 47 47 47 48 50 52 57 68 75 73 70 65 57 52 47 46 46 44 44 47 55 57 59 58 59 59 64 64
73 68 63 58 55 55 55 56 59 68 74 80 85 86 85 82 69 54 43 41 43 48 47 54 56 64 64 62 63 59 62 60 61
84 86 81 82 72 69 74 81 80 79 82 82 86 85 81 77 66 53 44 43 42 48 51 49 64 65 57 56 60 54 59 53 55

GFSFLT1_prec_cthk_099.txt.gz
RH
15 15 15 15 14 14 15 18 22 23 24 27 28 28 30 35 32 30 26 20 19 18 17 17 18 19 19 19 19 18 18 17 17
15 15 15 16 16 18 22 25 25 27 28 27 26 24 27 27 25 25 18 17 16 16 16 16 16 16 16 17 16 16 16 16 16
16 17 18 19 20 22 23 24 25 26 25 25 25 24 26 26 27 21 20 19 19 19 19 19 19 19 19 18 17 17 17 17 17
19 19 20 21 22 23 23 23 23 24 25 25 24 25 27 28 29 28 21 21 21 22 22 22 21 20 20 19 19 19 19 19 19
20 19 20 22 23 22 23 24 25 24 25 25 26 29 31 32 32 27 25 24 24 24 24 24 24 23 22 22 22 22 21 22 23
23 21 21 22 23 23 24 25 26 27 27 28 30 33 35 35 35 31 30 29 27 26 27 26 26 26 25 26 26 26 26 27 26
29 22 22 23 23 24 26 26 27 28 29 30 32 35 36 36 36 33 33 34 34 33 31 30 30 30 30 29 29 29 29 30 30
30 25 23 23 24 25 26 26 27 32 33 33 35 36 35 36 36 33 33 35 36 38 38 38 37 35 33 31 30 31 32 33 34
39 36 36 31 29 34 32 31 33 32 34 35 35 36 36 37 37 34 34 34 35 36 36 38 39 38 37 36 36 35 35 36 38
44 42 42 40 40 39 39 37 35 34 34 35 35 35 35 35 36 36 33 34 35 35 36 37 38 40 41 40 38 38 38 40 43
47 46 44 44 45 45 44 42 40 35 35 33 34 33 33 33 34 36 35 35 36 36 37 38 37 39 41 41 41 42 41 43 46
51 49 48 47 47 47 47 46 44 41 37 34 32 33 34 34 34 35 37 36 36 37 38 38 39 39 39 39 41 44 47 50 52
54 52 52 50 49 49 48 48 46 44 40 37 34 32 33 33 37 39 38 38 39 41 42 41 41 42 41 41 43 44 47 54 57
58 57 55 55 51 49 49 47 46 44 42 36 33 32 35 35 38 41 41 43 43 44 44 46 45 45 43 44 46 47 51 56 59
63 63 60 60 58 53 49 45 43 43 45 37 32 35 40 42 42 43 47 48 48 46 46 47 48 50 46 46 47 49 52 54 56
67 70 68 65 66 60 52 45 45 44 40 37 37 38 42 46 49 53 56 60 57 51 49 50 47 50 48 47 52 52 55 55 56
74 76 74 71 68 61 53 48 48 44 40 40 44 46 51 57 64 67 68 67 60 55 49 49 47 52 48 47 52 54 58 58 59
74 76 75 77 76 68 58 53 49 48 47 48 50 56 66 81 82 83 82 75 63 52 46 47 45 53 51 53 63 65 58 61 63
81 81 80 81 81 72 66 60 59 58 56 59 69 80 84 86 87 81 76 73 62 49 49 51 49 56 56 52 70 60 54 59 61
88 93 95 91 87 78 77 76 72 71 75 83 85 85 84 86 86 80 72 67 48 46 47 43 51 52 54 54 67 56 52 52 53

GFSFLT1_prec_cthk_102.txt.gz
RH
15 19 16 15 14 14 15 17 19 21 25 26 27 30 30 29 24 22 17 16 16 15 15 16 16 16 16 16 16 15 16 16 16
15 15 15 15 17 23 24 22 23 26 25 24 25 24 23 21 18 17 16 16 15 15 16 16 17 17 17 17 16 16 17 17 18
15 15 16 18 25 25 24 25 24 24 24 23 23 24 22 20 18 18 18 19 19 19 19 19 19 18 18 18 18 18 18 18 19
17 19 20 22 23 23 24 23 22 25 24 23 24 25 25 25 21 20 20 20 21 21 21 22 21 20 20 20 21 21 22 22 22
19 21 22 23 23 22 22 22 23 24 24 24 27 29 29 27 25 25 24 24 24 24 24 24 23 23 24 24 25 25 25 25 24
20 21 23 23 22 22 23 24 25 26 27 28 31 32 32 31 30 30 30 29 28 28 28 28 29 28 27 26 26 27 27 28 28
21 21 22 23 23 23 24 25 26 27 28 29 32 32 33 31 31 30 30 31 32 33 33 33 32 32 31 30 30 30 31 31 31
22 21 21 22 23 24 26 26 28 29 30 30 32 34 34 34 32 32 31 31 32 33 33 35 34 34 32 33 34 34 34 34 35
29 25 23 24 24 25 26 27 29 32 34 34 35 35 35 35 34 32 31 30 31 32 32 34 35 36 35 36 34 33 34 36 38
36 34 33 32 32 33 32 34 36 32 33 35 34 34 34 35 34 33 33 32 31 32 32 34 36 36 37 39 37 36 35 37 39
47 43 43 42 40 43 41 41 40 37 37 36 33 32 33 34 34 33 32 32 32 32 33 36 37 35 36 38 37 38 39 42 42
56 54 51 48 47 47 47 47 45 43 40 37 35 32 33 33 33 33 34 35 34 35 36 39 39 38 38 40 39 39 41 43 47
54 54 53 50 52 50 49 48 46 45 43 40 35 32 31 35 36 36 37 36 38 39 40 40 38 41 42 41 42 42 41 45 49
54 54 56 54 54 53 51 48 47 45 44 43 41 35 31 34 38 41 42 43 43 48 48 48 43 45 44 43 45 42 43 49 51
53 54 56 59 58 55 56 50 49 47 45 41 41 34 33 36 40 44 47 50 54 58 56 54 49 46 45 46 49 46 44 48 52
56 55 56 58 60 59 57 60 56 50 44 44 42 35 36 39 43 49 54 63 67 70 68 59 52 47 46 44 49 47 47 61 59
73 69 67 65 64 66 65 65 63 55 49 49 43 41 42 46 51 62 72 79 79 76 72 64 53 50 48 43 54 52 52 67 64
82 84 79 73 68 69 68 67 66 62 58 55 50 51 51 56 69 77 81 82 77 74 71 62 52 54 51 47 53 57 54 67 66
95 93 89 83 78 74 72 77 76 75 68 61 62 64 64 75 81 84 86 82 80 80 70 57 52 54 50 51 57 57 55 66 64
90 92 95 93 90 86 83 89 87 85 80 75 70 75 83 91 92 89 87 82 77 71 65 52 50 53 52 53 53 52 62 65 54

GFSFLT1_prec_cthk_105.txt.gz
RH
22 17 17 15 12 14 16 18 23 27 28 29 25 24 23 23 19 15 15 15 14 14 15 15 16 16 16 16 16 16 16 17 17
16 15 14 15 16 17 20 21 26 25 25 24 23 22 20 17 16 16 16 17 17 18 18 18 18 17 17 17 17 18 17 18 19
14 14 18 23 25 23 23 24 24 22 24 24 23 21 18 17 18 18 18 19 20 20 20 19 19 19 19 20 20 21 21 22 22
14 18 25 25 25 27 25 22 23 23 23 24 24 23 22 21 21 21 21 22 22 22 22 22 22 22 23 24 24 25 24 24 24
18 20 23 23 24 26 23 23 24 23 23 25 27 27 27 26 26 26 26 26 26 26 26 26 26 25 25 25 25 26 27 27 27
19 21 22 22 22 23 23 23 24 25 26 28 30 30 29 28 28 29 29 29 29 30 30 30 30 30 29 28 29 30 30 30 29
20 21 22 22 23 24 23 24 24 26 27 30 31 30 30 30 30 31 31 31 32 32 31 30 31 31 30 30 32 32 32 31 32
21 22 22 23 23 24 24 24 25 26 28 30 32 32 33 31 30 29 30 30 30 31 32 32 32 33 33 32 33 34 33 32 33
21 22 22 24 25 25 26 27 28 29 30 31 32 32 31 31 30 30 30 30 30 30 31 32 33 35 34 33 34 35 34 33 34
24 25 26 29 30 32 33 33 34 35 35 34 33 30 30 29 29 29 30 30 30 30 31 33 34 35 35 34 36 37 37 36 36
36 33 34 34 35 36 37 37 38 39 38 39 36 31 29 28 27 28 31 32 32 33 34 36 37 38 36 35 38 39 40 40 38
48 45 44 44 43 42 44 43 44 42 41 40 39 34 29 28 29 30 31 33 35 36 39 40 39 39 37 40 40 40 41 42 39
50 52 51 51 50 50 50 48 46 45 44 41 40 39 33 29 31 34 36 38 40 42 46 49 48 47 41 39 41 45 45 47 43
50 53 57 57 57 56 54 53 50 48 47 45 42 40 39 32 33 36 38 43 45 50 55 61 61 56 49 45 45 44 46 48 46
50 49 51 54 56 58 60 57 55 53 50 50 47 43 43 34 35 37 41 47 54 62 69 71 70 64 53 48 49 46 45 47 52
58 55 53 50 50 54 56 58 59 57 60 57 50 45 44 36 39 42 47 54 64 73 77 75 70 66 56 52 51 49 49 57 62
68 64 63 62 61 59 57 58 61 63 61 61 59 53 49 41 43 48 55 66 74 79 78 76 73 68 57 49 51 49 51 55 53
79 81 80 77 73 72 72 71 68 67 64 63 64 65 58 50 51 55 69 79 82 83 82 78 72 67 54 48 50 51 53 54 56
85 83 87 92 90 85 82 81 80 77 73 68 71 78 72 65 64 66 73 85 87 86 81 76 73 64 55 51 53 50 51 51 52
94 92 89 91 94 93 89 87 86 87 88 85 85 86 82 78 72 74 85 89 85 82 76 74 69 58 55 54 51 52 50 53 55

GFSFLT1_prec_cthk_108.txt.gz
RH
28 32 33 17 12 16 19 20 25 26 25 23 24 23 22 20 15 15 14 15 15 16 17 17 17 16 16 16 16 17 17 18 19
15 24 16 13 15 18 21 26 26 24 22 20 20 19 17 17 17 17 18 18 19 19 18 18 18 18 19 19 20 21 21 21 21
15 14 14 15 18 21 24 25 22 21 21 20 19 17 17 18 18 19 20 20 20 21 21 21 21 22 22 22 22 22 23 24 24
14 20 22 20 21 24 23 21 21 22 22 21 22 21 20 21 21 22 23 23 24 24 24 24 25 26 26 25 25 25 26 26 26
21 23 25 25 25 24 22 22 22 22 23 24 25 26 26 26 25 26 26 26 27 28 28 29 29 29 29 28 28 29 29 29 28
24 25 24 26 24 23 23 24 23 24 25 25 27 27 27 27 27 28 29 29 29 29 29 29 28 29 30 31 31 32 32 32 31
21 22 23 23 24 24 25 24 24 25 26 26 28 28 29 29 29 29 28 28 28 29 30 30 30 30 32 32 31 32 33 33 33
21 23 23 23 23 24 24 24 24 26 26 27 28 28 29 29 28 27 27 28 28 28 29 30 32 32 32 32 31 31 33 34 34
22 22 23 24 24 24 25 26 27 27 28 29 27 28 27 28 28 28 28 28 27 27 29 31 33 35 35 35 33 33 35 36 37
21 22 23 24 27 30 32 33 34 34 34 33 31 29 28 27 27 27 29 30 30 30 31 33 35 36 36 37 37 39 38 39 39
23 25 28 30 33 34 36 37 37 38 38 39 37 34 30 29 28 28 30 31 32 34 36 37 38 38 38 39 38 40 41 42 42
34 32 33 34 35 36 37 39 40 40 41 41 40 39 35 30 28 32 34 34 35 37 41 44 47 48 48 45 43 42 44 46 45
43 41 42 42 43 45 46 45 44 44 43 42 42 39 37 36 29 31 34 38 41 44 47 51 58 61 61 52 46 48 48 51 49
46 46 48 51 52 52 53 54 53 52 50 47 45 42 39 38 34 32 35 39 43 49 54 59 64 67 68 62 51 50 52 53 52
49 49 50 50 52 54 55 55 56 57 56 54 53 51 47 43 40 35 36 40 44 50 56 66 73 74 70 64 56 52 56 57 61
55 55 57 59 58 56 55 55 54 54 54 56 58 57 55 55 49 41 39 41 47 52 61 72 77 76 72 67 59 53 50 66 63
66 63 63 62 62 61 61 62 61 60 59 60 60 59 56 58 59 53 52 49 53 61 71 77 79 77 73 70 60 53 52 46 53
78 77 74 74 73 73 74 73 72 69 70 72 68 67 61 61 64 63 66 67 66 68 74 80 81 77 74 69 59 54 54 54 52
84 84 79 85 86 86 89 89 85 84 81 79 77 77 76 78 78 79 76 73 77 75 82 85 78 67 73 68 60 57 56 54 54
76 81 80 89 93 93 92 92 94 94 91 86 88 86 85 84 87 85 82 80 78 76 85 85 77 72 81 67 59 60 58 59 52

GFSFLT1_prec_cthk_111.txt.gz
RH
38 40 39 20 12 19 20 22 23 24 26 26 25 20 17 14 14 14 15 17 17 18 17 17 17 18 18 19 19 20 20 21 21
36 36 24 11 16 20 22 25 24 21 21 19 17 15 16 16 17 17 18 19 19 19 19 19 20 21 22 22 22 22 22 23 23
28 26 13 15 19 21 25 25 22 19 18 17 16 16 17 17 18 19 21 21 21 21 21 22 23 24 25 25 25 24 25 26 26
23 14 14 17 20 25 23 21 20 19 19 18 18 18 19 21 22 23 24 25 25 25 25 26 27 27 28 28 28 28 29 28 29
14 14 17 19 24 22 20 20 21 21 22 22 22 22 23 24 23 24 24 25 26 27 27 27 27 28 29 30 30 30 31 31 32
22 23 20 21 22 21 21 22 23 23 23 24 24 23 24 25 25 27 27 27 27 26 27 27 28 29 30 30 30 30 30 32 33
26 26 23 22 24 23 23 24 23 24 25 26 26 26 26 26 25 25 25 26 27 27 28 29 29 30 31 30 30 30 30 32 34
23 24 24 24 25 25 25 23 24 26 27 27 27 26 26 26 25 25 26 26 26 27 28 30 31 32 32 32 31 31 31 32 34
21 22 22 23 24 25 24 24 26 28 29 28 28 28 27 26 25 26 27 28 28 29 29 31 31 32 33 33 33 34 35 36 36
22 22 23 24 24 26 28 30 31 33 34 33 32 30 27 25 25 26 28 29 30 32 34 35 35 35 36 36 38 38 38 40 40
22 22 24 26 29 32 33 34 35 36 38 38 37 36 33 27 25 27 29 30 32 33 36 39 41 45 47 47 45 44 44 44 45
24 25 29 33 35 36 37 38 39 40 40 40 39 39 38 36 29 28 30 33 35 37 40 43 47 51 55 56 54 49 49 47 49
29 32 35 38 40 41 42 43 44 44 43 43 43 42 41 39 37 33 33 34 37 40 43 47 52 56 60 64 62 53 52 52 54
41 39 39 42 43 45 47 49 50 50 50 50 50 49 48 46 44 40 38 38 40 43 46 48 54 62 67 71 68 59 58 61 63
47 46 45 46 48 49 50 50 51 51 52 52 53 52 51 51 52 54 50 46 47 50 51 52 57 66 69 73 70 64 57 62 69
53 54 54 54 55 56 57 55 55 56 57 56 54 52 53 56 55 57 57 55 53 55 61 65 68 75 78 74 70 64 56 66 60
61 61 63 64 63 65 66 65 63 63 65 63 62 62 62 60 56 57 60 61 61 67 71 73 76 80 80 80 80 69 57 54 50
70 70 70 73 75 76 75 73 73 75 76 74 74 74 69 69 68 69 70 73 75 78 82 76 81 83 85 85 75 65 60 59 57
82 80 81 80 79 83 85 83 85 87 88 89 86 83 79 82 78 80 79 79 82 85 88 83 85 83 92 85 77 77 63 60 59
82 85 86 88 86 89 89 88 92 95 95 97 92 89 89 84 83 85 85 85 86 88 91 91 89 85 87 90 79 88 74 61 58

GFSFLT1_prec_cthk_114.txt.gz
RH
39 42 40 28 14 20 19 23 28 30 28 24 18 14 13 13 14 15 16 16 16 16 16 18 19 20 20 21 22 22 22 23 24
39 41 31 13 18 19 22 24 24 23 20 16 14 14 15 16 17 17 18 18 18 19 20 20 21 22 24 24 23 24 24 25 26
38 35 17 15 21 20 23 21 20 18 16 15 15 16 16 17 18 19 20 21 21 21 22 24 25 26 26 26 26 27 27 28 28
36 25 13 19 19 22 21 18 18 17 15 16 17 18 19 20 22 23 24 23 23 24 26 27 27 27 28 29 29 28 29 29 31
30 15 16 20 22 21 19 19 19 19 19 19 20 21 21 22 22 23 24 25 26 25 25 26 27 28 28 29 29 29 29 30 32
18 15 19 25 22 20 21 21 22 22 21 22 22 23 23 24 24 25 25 25 24 25 25 26 27 27 28 29 29 28 28 29 32
15 18 20 25 22 22 23 24 23 23 23 24 24 24 24 24 23 23 23 24 24 25 26 27 28 28 29 28 29 29 30 31 33
17 19 20 21 22 22 24 24 25 25 26 25 24 24 23 23 23 23 23 24 24 26 27 28 29 28 27 28 29 31 33 34 36
22 20 20 22 23 23 24 25 26 27 26 26 26 25 25 24 24 25 26 26 27 28 29 30 31 31 32 33 34 35 38 38 39
24 23 22 23 23 25 25 27 29 31 31 31 31 30 27 26 26 26 27 28 29 31 33 35 38 40 43 43 41 40 44 45 43
23 23 24 24 26 29 30 32 35 37 37 37 37 35 34 32 27 28 30 31 33 35 37 40 42 45 47 49 48 48 48 47 46
24 23 25 27 31 34 34 36 38 39 40 40 39 40 40 38 36 32 31 32 35 37 40 44 46 48 51 54 55 57 54 54 53
25 25 28 32 36 38 40 41 44 45 46 46 46 46 46 46 43 40 37 36 38 40 42 45 49 52 56 58 62 62 57 57 57
27 29 34 38 42 44 46 48 48 49 49 49 49 49 50 51 51 50 49 50 48 48 51 54 57 61 64 68 71 72 71 59 62
33 35 38 41 44 45 45 45 46 48 49 49 50 49 48 49 51 52 52 53 54 56 57 58 63 68 73 73 75 77 79 60 69
38 40 40 42 43 45 48 54 57 56 57 58 58 57 57 56 56 58 57 57 57 60 65 70 73 79 81 77 78 84 83 78 59
46 47 48 51 53 59 65 66 69 68 65 64 66 67 65 64 65 65 65 67 68 70 72 77 79 85 86 82 84 83 85 75 62
57 57 60 63 66 69 72 77 79 77 78 80 82 80 79 79 79 71 70 72 72 74 79 82 85 88 90 89 89 88 88 73 69
69 69 70 74 79 82 84 80 85 88 87 86 87 87 88 90 88 84 78 77 77 82 86 87 89 90 92 93 89 88 90 81 80
84 83 84 83 88 88 86 89 84 88 92 89 92 87 92 95 95 88 84 84 85 88 86 88 92 93 93 93 92 88 84 78 79

GFSFLT1_prec_cthk_117.txt.gz
RH
42 45 46 35 14 18 23 26 27 27 25 17 14 13 13 14 15 16 16 16 16 16 17 19 20 22 23 22 22 23 25 26 29
40 43 41 17 17 20 24 26 26 24 17 13 13 14 15 16 16 16 17 18 19 19 20 21 23 23 24 25 25 25 26 29 29
38 43 27 14 19 22 24 24 20 17 14 14 14 15 16 17 18 19 20 21 21 22 23 25 25 25 25 26 27 27 27 28 30
41 35 14 18 20 23 22 20 17 16 15 15 16 17 18 20 22 23 23 22 23 24 25 25 25 26 26 27 27 28 27 27 29
40 24 17 20 23 22 19 18 17 17 17 17 18 19 20 22 22 22 23 24 24 23 24 24 25 25 26 26 26 27 29 28 29
36 17 22 22 22 20 19 19 19 20 20 20 20 21 22 23 24 24 23 22 23 23 24 25 25 25 25 25 26 27 29 31 31
31 18 24 23 21 21 21 22 22 22 22 23 23 23 23 23 23 22 22 22 23 24 25 26 25 24 23 23 25 27 29 33 34
19 22 28 23 21 22 23 23 23 25 25 25 24 23 23 22 23 23 22 23 24 25 26 26 26 27 28 28 28 30 33 36 38
19 23 25 22 22 23 23 24 25 26 26 25 25 24 23 23 23 24 24 25 26 27 29 30 33 36 37 37 37 36 37 41 43
21 22 22 22 24 24 23 25 26 27 29 30 28 27 25 24 24 25 26 27 28 30 32 35 38 41 42 42 42 42 42 45 46
23 22 23 23 25 25 25 26 30 32 34 35 35 35 34 32 29 28 29 30 31 33 35 38 41 44 46 47 48 47 46 50 51
25 23 24 24 25 26 29 30 34 36 38 39 40 39 39 39 39 36 34 33 34 36 39 41 44 47 50 55 56 56 53 55 54
28 26 25 25 27 32 34 35 37 39 41 44 44 46 46 47 48 48 47 48 47 48 47 47 51 56 59 62 65 68 66 65 61
27 26 27 29 33 36 37 40 42 45 48 49 49 49 49 49 49 50 50 50 51 52 55 57 59 60 63 69 72 72 77 77 68
27 27 29 33 38 41 43 45 46 46 46 48 49 49 49 50 50 50 51 52 54 54 57 59 64 69 74 74 78 78 82 87 82
28 30 34 38 42 45 45 46 46 48 53 56 55 55 58 57 57 58 60 62 63 64 66 68 71 76 80 79 80 80 83 83 83
32 34 38 43 45 45 45 47 52 60 65 68 69 67 65 64 67 73 75 74 68 67 69 71 73 78 84 86 85 84 82 81 83
39 40 42 42 45 48 51 58 69 73 77 79 80 79 77 79 81 81 80 80 79 70 70 75 77 83 87 90 90 90 90 90 91
52 52 51 52 56 61 65 72 78 82 82 82 86 84 86 87 84 85 84 86 83 77 74 77 82 86 91 90 91 90 91 91 85
62 64 66 67 69 76 81 85 85 85 86 82 82 85 84 85 85 84 87 87 85 82 80 83 89 91 91 93 94 91 91 87 88

GFSFLT1_prec_cthk_120.txt.gz
RH
37 48 50 38 18 25 30 29 28 28 17 14 13 12 12 15 19 19 19 23 17 17 19 20 21 22 22 22 24 26 28 26 30
43 51 48 24 19 26 29 28 28 23 15 13 12 13 14 20 22 23 24 22 19 19 21 22 23 23 23 25 27 29 28 29 33
46 49 42 15 20 26 28 27 24 17 14 14 14 15 16 20 22 24 22 21 22 22 24 24 23 24 25 25 26 26 27 28 28
40 45 29 16 26 28 28 22 19 15 15 15 15 16 18 24 25 27 25 22 23 24 23 24 24 24 24 24 25 26 27 29 30
40 40 15 20 28 28 23 18 17 16 17 17 18 19 20 23 25 27 22 23 22 22 23 23 24 24 24 23 23 24 26 28 31
44 29 17 23 27 23 20 17 17 18 19 20 20 21 23 26 27 24 21 21 21 22 23 24 24 23 22 22 23 25 27 30 33
44 19 23 26 25 21 20 19 20 21 21 21 21 22 23 24 26 21 20 21 22 23 24 24 24 24 25 26 27 29 31 32 36
41 19 27 27 25 23 21 22 23 24 25 24 23 22 22 23 23 21 21 23 24 25 25 26 28 32 33 34 33 33 34 35 38
38 27 31 29 28 26 23 27 25 26 26 25 23 23 22 23 25 23 23 24 25 27 29 31 34 37 38 39 39 39 39 40 41
35 30 32 28 27 27 25 27 27 27 27 26 25 24 24 24 25 27 25 26 28 29 31 34 37 39 41 41 43 44 43 44 46
30 30 31 29 28 27 25 28 29 28 31 31 30 30 29 28 27 29 28 29 30 32 34 36 39 41 43 46 51 53 53 54 54
24 31 30 29 29 28 28 28 31 34 35 37 37 38 38 38 38 37 38 38 38 39 40 41 44 46 49 53 58 60 62 60 60
25 31 31 30 29 27 28 31 36 39 40 42 41 41 43 45 45 46 46 47 48 48 49 50 52 55 58 61 62 66 70 70 67
28 32 32 32 30 28 32 35 41 40 42 44 44 45 46 46 46 45 46 46 46 47 48 50 52 55 60 66 71 73 76 80 78
34 32 33 31 30 34 37 38 42 46 48 46 46 45 45 45 44 44 45 46 49 52 56 58 60 62 66 72 74 76 80 85 82
34 33 32 28 32 39 42 43 45 47 47 47 48 47 47 47 48 51 54 60 62 63 65 65 65 66 70 73 76 77 78 84 87
34 31 32 33 38 42 44 46 48 48 47 52 58 62 70 68 66 65 70 73 75 74 73 73 68 68 72 76 80 80 80 82 83
34 32 33 38 44 45 47 49 47 48 54 60 72 80 80 78 78 78 80 78 78 76 76 77 72 70 73 78 81 83 84 85 84
35 35 36 41 45 48 49 46 49 58 70 76 80 80 82 87 82 81 81 79 79 82 78 79 71 69 75 82 86 89 87 89 87
36 37 39 43 45 47 49 56 62 70 78 84 86 81 76 79 80 79 80 78 80 85 80 78 73 77 78 87 91 94 89 89 90